GFSWCAN_500_spd_075.txt.gz
Wind_Speed
45 50 49 46 37 33 41 51 50 49 44 46 40 46 53 49 54 58 59 57 54 47 45 46 44 35 31 37 47 66 67 67 53 53 50 51 49 47 48 46 49 42 40 42 37 40 38 30 23 27 23 29 31 30
45 52 35 26 22 28 34 49 49 52 48 47 45 43 54 50 51 52 60 57 49 46 44 45 38 34 34 29 33 47 62 58 53 47 49 47 49 48 49 53 44 43 37 40 41 40 37 37 32 31 29 27 30 32
41 46 24 20 24 23 20 24 40 57 52 51 46 45 53 51 50 55 59 53 49 48 45 41 40 34 35 32 36 45 53 57 54 51 56 52 47 44 42 43 44 48 43 41 39 36 35 30 26 31 33 31 33 34
33 35 15 13 19 11 19 28 55 55 52 46 45 44 55 52 51 56 55 47 45 42 40 34 33 30 33 38 37 42 48 59 55 52 57 49 46 42 43 39 41 44 44 45 45 41 40 40 32 34 36 42 42 37
27 29 14 21 28 34 43 48 50 49 47 51 42 48 53 43 49 53 46 41 41 39 34 29 27 28 34 40 37 35 45 52 56 54 52 43 43 46 48 44 41 37 40 44 39 35 39 40 42 35 35 36 40 40
23 31 16 27 33 39 37 38 43 43 47 45 45 52 47 45 49 42 41 42 41 39 29 26 26 29 38 41 41 38 45 52 52 54 49 50 47 46 46 43 36 32 36 36 32 33 31 33 35 40 42 36 40 41
28 29 33 22 30 33 38 40 39 41 42 42 50 51 43 39 40 42 42 39 39 31 24 21 23 20 44 47 43 40 41 44 50 46 51 46 48 46 41 40 27 28 29 32 34 32 31 34 36 36 36 37 38 42
29 31 32 36 35 32 30 32 35 40 49 48 45 42 42 45 43 39 36 36 35 29 23 16 28 24 38 47 41 36 33 35 41 46 46 43 43 42 45 33 29 31 26 24 26 30 33 35 38 40 39 39 41 42
23 28 32 35 35 35 36 38 40 41 41 43 45 45 42 37 36 35 34 36 34 30 26 17 28 22 27 41 42 36 36 36 39 51 52 39 36 42 36 26 29 28 26 27 29 31 34 38 39 38 36 36 38 41
19 22 27 30 33 36 39 41 42 43 45 45 43 41 39 36 34 33 33 33 31 26 22 30 27 32 41 38 40 36 29 35 43 48 53 54 37 35 37 26 24 24 23 25 28 34 36 36 31 30 33 34 37 39
25 25 27 29 30 31 33 34 35 36 36 36 34 33 33 31 31 33 31 32 27 26 42 37 20 35 35 36 37 33 29 32 40 48 47 49 48 39 32 27 25 26 27 28 29 30 33 33 32 32 34 35 38 38
24 25 26 27 27 27 29 31 31 30 31 31 30 30 30 30 30 28 26 28 26 42 44 31 26 29 44 39 37 28 31 31 39 42 43 44 41 38 32 28 25 25 29 31 32 33 35 36 33 34 35 36 36 34
22 21 20 22 25 27 27 26 26 27 27 29 30 28 27 27 27 28 28 30 40 46 27 24 29 32 39 36 40 35 27 30 36 40 38 34 31 31 30 28 30 32 34 35 34 36 37 33 31 31 33 35 35 35
21 19 17 17 19 21 22 21 23 24 23 22 18 21 27 26 26 33 36 39 40 44 28 40 33 31 32 32 36 36 27 19 26 35 33 32 33 30 29 31 31 32 34 34 33 31 29 31 31 31 35 37 38 38
19 17 17 19 21 23 23 22 19 18 19 21 26 27 24 21 16 26 42 32 27 30 32 30 25 19 16 34 40 29 28 34 28 24 22 27 29 27 26 26 27 25 25 27 27 29 31 32 33 35 37 37 36 37
32 30 28 26 25 24 24 22 19 18 28 28 29 27 25 22 28 35 39 31 21 30 24 22 19 12 13 21 18 17 21 26 24 23 20 25 26 22 20 23 25 24 28 30 29 30 31 32 31 30 31 35 38 41
29 28 27 31 30 28 25 23 26 33 36 30 24 27 27 32 31 36 26 23 23 21 18 15 19 10 13 16 13 16 14 20 24 22 21 20 21 22 22 21 21 21 24 27 27 28 29 31 33 36 38 40 41 42
34 32 31 29 27 30 36 35 35 34 28 27 31 35 31 35 31 23 19 20 22 20 16 14 13 14 9 13 11 13 13 14 15 16 16 17 19 19 17 17 19 18 18 20 23 26 29 32 34 36 38 39 41 43
25 29 27 27 29 33 33 31 25 22 20 22 30 34 32 25 17 17 20 26 23 20 18 11 7 7 7 6 11 12 13 13 10 10 11 12 13 14 16 18 20 21 23 25 28 30 33 34 36 37 38 40 43 46
25 24 21 20 23 26 30 30 27 25 26 30 26 16 15 14 18 18 18 20 20 18 14 10 10 6 10 11 14 16 13 13 13 12 15 16 18 20 21 23 25 27 29 30 31 33 34 36 38 41 43 46 48 51
16 19 23 22 18 16 17 11 14 16 19 18 21 19 16 15 20 23 22 25 19 16 14 12 12 18 18 18 16 15 16 16 16 17 19 21 23 24 24 25 26 28 30 32 35 38 40 42 44 46 48 50 52 55
10 8 9 11 14 17 18 18 15 16 18 15 14 13 10 10 12 15 19 20 20 19 18 19 18 17 17 17 18 20 22 22 23 23 23 24 24 25 27 29 31 33 35 37 40 42 44 46 47 49 52 54 56 59
5 6 6 6 6 7 8 8 9 9 10 10 10 10 10 13 15 17 17 17 18 20 19 20 20 21 21 22 24 24 25 25 25 26 26 28 29 30 31 32 35 38 41 43 45 46 47 49 51 53 55 56 58 60
2 3 4 4 4 4 5 6 7 8 8 8 7 8 9 11 12 12 13 13 14 16 17 19 21 22 23 25 26 26 27 27 28 29 31 32 34 36 39 41 43 44 44 45 46 46 48 50 52 54 56 57 58 62
0 1 1 1 1 2 3 4 7 9 11 12 14 15 16 17 18 19 19 20 21 23 24 26 27 28 29 29 30 31 32 33 34 36 37 38 39 40 40 41 42 43 43 45 46 48 50 52 52 53 56 59 62 64
5 5 5 5 5 4 6 5 7 9 10 12 14 16 18 20 21 22 23 23 24 25 27 29 30 31 33 34 35 36 36 37 37 37 37 38 38 39 40 41 42 43 45 47 48 49 49 51 54 57 59 61 62 61
12 12 13 14 14 14 14 14 15 15 15 15 16 18 20 21 22 24 25 27 29 30 31 32 32 33 34 34 35 35 35 35 36 36 37 37 38 39 40 41 43 45 46 46 47 49 53 55 56 58 58 57 54 52
21 21 21 22 22 23 24 25 25 25 25 25 26 25 25 25 26 26 26 27 28 30 31 33 35 37 38 38 38 38 38 37 37 37 37 38 39 41 43 43 43 44 46 48 51 52 53 54 54 52 49 48 46 45
31 32 32 32 32 33 33 33 34 35 35 35 35 34 34 34 33 33 33 31 31 31 31 32 33 33 34 35 36 36 36 36 37 38 40 41 41 42 42 44 45 46 48 49 50 50 50 48 45 44 42 41 42 45
39 38 38 37 37 37 38 39 40 40 41 41 41 41 40 40 40 39 37 36 36 35 35 35 36 37 36 36 37 37 38 39 39 40 41 41 42 43 44 44 45 44 44 45 45 44 41 41 38 37 38 41 42 42
32 34 36 36 36 36 36 36 36 36 36 35 34 34 33 33 33 33 34 35 36 36 37 37 38 38 38 39 39 40 40 40 41 41 42 42 41 41 40 40 40 42 42 40 37 37 35 33 34 36 39 39 39 40
28 24 24 22 20 19 17 17 17 18 19 20 21 22 24 26 29 31 32 33 34 35 35 36 36 37 38 38 39 39 39 38 37 36 36 36 36 36 38 39 39 37 34 34 32 29 30 32 35 36 35 36 38 40
16 15 14 14 15 16 17 18 18 19 18 17 17 17 19 20 21 21 23 25 26 28 29 30 31 32 31 31 31 30 30 31 31 32 33 35 36 37 36 34 31 31 30 26 26 28 30 32 33 33 34 36 39 40

GFSWCAN_500_spd_078.txt.gz
Wind_Speed
49 40 43 49 53 58 58 50 53 58 58 54 52 49 46 44 50 53 59 62 65 63 54 48 43 33 33 34 29 25 41 55 56 56 54 51 37 40 38 40 40 39 39 43 43 47 44 29 31 36 27 24 33 33
34 41 43 48 55 44 36 35 35 38 47 54 50 50 50 46 46 56 63 58 62 61 54 40 42 33 36 30 27 30 35 42 55 57 51 51 46 35 40 40 38 43 31 34 41 35 37 37 34 30 34 39 36 37
35 36 39 29 37 32 35 33 28 34 40 52 46 44 44 44 45 60 54 56 61 54 45 31 34 38 31 30 29 25 34 37 43 53 53 54 48 44 38 41 41 42 35 30 34 37 31 29 32 32 33 33 39 42
30 27 24 26 28 33 33 36 31 33 43 47 42 43 41 42 51 58 54 58 61 51 44 29 32 36 37 35 28 30 32 46 44 53 58 50 43 42 38 38 39 39 39 41 39 33 32 28 37 22 29 32 30 33
22 14 18 20 25 22 8 27 31 45 47 42 42 37 43 48 47 49 47 51 48 44 42 34 36 34 34 34 29 31 34 43 47 46 53 51 40 41 40 38 39 35 37 45 43 39 39 38 38 35 35 34 35 38
17 10 17 19 27 35 26 33 51 45 50 45 42 38 48 47 45 46 48 47 45 44 39 40 34 27 28 30 32 33 40 46 45 32 51 57 47 43 43 40 39 41 37 35 37 38 40 42 38 43 43 39 37 39
16 14 15 19 24 28 38 44 48 48 41 39 42 46 41 44 42 40 40 44 44 41 37 32 31 28 27 29 35 39 46 58 52 34 46 50 49 45 43 42 33 33 29 32 36 32 30 33 37 32 29 29 31 35
20 15 15 22 24 31 32 36 41 40 39 38 46 51 46 43 40 39 40 39 38 36 33 30 28 26 29 31 38 47 56 60 58 45 48 45 39 44 46 37 26 28 32 29 30 24 27 31 29 26 30 34 37 38
22 24 25 20 23 29 30 33 31 35 41 49 46 43 43 43 41 38 37 37 36 37 32 25 22 22 14 22 46 48 54 58 52 50 38 39 40 40 41 34 28 27 31 30 30 27 23 27 31 33 36 38 39 40
23 25 27 34 36 33 33 31 33 45 45 43 42 41 39 38 39 36 34 36 38 35 32 24 18 18 20 27 38 40 49 43 46 43 41 40 33 42 37 32 27 32 32 28 27 29 30 30 33 36 38 38 34 32
25 28 30 31 32 32 34 38 42 40 37 39 43 42 39 38 36 35 35 36 33 32 26 22 17 19 24 38 39 38 50 43 44 47 44 47 37 34 37 28 28 23 24 28 29 29 30 32 33 34 38 39 36 35
24 27 29 31 33 37 39 39 37 38 38 37 36 37 37 35 33 31 33 34 32 27 20 17 18 17 25 38 41 42 41 41 34 36 38 41 49 46 34 21 28 25 23 25 29 31 33 35 36 37 36 34 33 34
23 22 24 28 29 29 30 31 33 32 32 32 30 30 30 29 29 31 32 27 23 19 13 17 16 21 30 35 39 41 41 31 22 30 38 38 38 42 44 39 30 23 24 29 33 36 38 39 38 36 36 36 35 29
20 19 21 21 23 25 27 28 29 30 29 27 26 24 23 24 24 24 24 24 23 21 14 17 18 28 22 34 33 31 24 31 26 28 33 34 33 30 30 30 31 31 33 35 38 40 39 39 39 37 35 33 32 34
16 15 17 19 21 22 21 22 21 20 20 21 20 20 20 19 20 17 16 21 25 22 22 21 21 24 22 36 33 28 19 28 34 23 32 31 28 27 27 28 31 34 35 37 38 37 35 33 30 28 30 33 35 41
14 16 16 18 17 18 19 20 19 20 21 17 15 16 15 13 17 11 31 35 27 24 26 20 19 15 14 16 32 36 30 28 26 21 23 25 27 30 31 28 29 30 30 30 27 24 26 26 30 35 40 41 38 37
18 20 20 17 12 11 11 8 10 17 20 22 23 26 18 14 20 38 34 28 25 28 29 23 17 12 11 19 29 28 29 26 19 18 18 20 23 26 27 28 25 24 24 23 25 26 28 31 35 35 34 35 36 39
25 26 24 21 15 15 29 28 31 34 36 36 30 17 22 15 36 38 20 21 29 24 23 14 16 10 11 25 28 18 17 24 30 26 23 22 20 19 19 22 25 28 28 27 25 25 27 29 30 31 34 36 37 39
25 24 22 28 33 30 23 21 21 19 19 26 22 23 19 18 30 15 9 14 18 15 20 12 13 7 13 19 17 15 13 14 17 19 21 19 17 17 19 20 20 20 21 22 24 25 27 28 30 33 35 37 40 43
20 21 24 28 27 24 20 16 17 18 22 23 24 21 21 19 17 15 16 17 17 13 14 13 10 5 3 7 13 14 12 12 13 12 12 11 12 13 15 16 18 20 22 24 26 28 31 34 37 38 39 42 44 46
20 17 17 17 20 19 20 22 24 26 28 29 24 21 18 16 16 16 14 14 13 11 8 6 5 3 6 5 6 9 9 8 7 8 9 11 13 15 18 21 24 27 30 32 33 34 35 37 39 41 43 46 49 51
21 21 20 18 16 15 14 18 20 21 17 13 11 8 9 10 12 12 12 13 12 13 10 5 4 8 10 9 11 12 11 11 12 14 17 18 20 22 24 26 28 31 32 33 35 37 38 40 43 46 48 50 53 55
12 11 10 12 14 15 17 17 18 17 17 16 15 13 12 13 13 15 14 14 12 10 7 9 10 9 9 10 11 13 15 17 19 22 24 24 25 26 28 30 32 34 36 38 40 42 44 46 48 50 52 54 56 59
5 6 5 4 5 7 8 7 8 8 7 7 6 6 5 6 7 9 10 12 12 12 12 14 15 16 18 20 20 20 20 22 23 24 25 27 28 30 32 34 36 38 40 42 44 46 47 49 51 52 53 56 58 60
4 5 5 4 4 3 5 6 7 7 7 8 7 7 8 9 11 11 11 11 13 14 16 18 20 22 25 26 26 27 28 29 30 31 33 34 36 37 38 39 40 42 44 45 46 47 49 50 51 53 56 57 57 59
1 1 2 3 3 2 1 2 4 5 7 9 11 12 13 15 16 17 18 20 21 22 23 25 26 27 29 30 31 32 33 33 34 35 37 38 39 40 41 41 42 43 44 45 46 48 50 52 53 53 53 56 58 60
7 7 8 9 9 10 11 13 13 13 13 14 14 14 15 16 17 18 19 21 23 25 26 27 28 29 29 30 31 32 33 34 34 35 37 37 38 39 40 41 42 43 45 45 47 49 50 49 50 53 55 57 58 58
17 18 18 19 20 22 23 23 23 23 24 24 25 25 25 25 25 25 25 25 25 26 26 27 29 30 32 34 35 37 38 38 39 39 40 40 40 41 42 42 42 42 44 46 47 46 47 50 52 53 54 55 53 50
24 25 27 29 30 30 30 30 31 32 32 33 33 34 34 34 34 34 34 34 34 34 34 33 33 34 35 36 36 37 38 39 40 40 41 41 40 40 40 41 43 44 45 45 46 47 49 49 50 51 49 46 45 42
34 35 35 34 33 31 31 33 34 34 35 36 36 37 38 38 39 40 40 40 39 39 39 38 38 37 37 37 37 38 39 39 39 40 40 40 39 40 41 43 44 44 44 44 45 46 47 47 46 43 41 39 38 40
28 28 30 31 35 37 40 40 40 40 39 39 39 39 39 40 40 41 41 41 41 40 40 39 39 38 37 37 37 37 38 39 39 39 39 39 40 42 43 43 41 41 42 42 43 44 44 40 38 36 35 36 37 38
40 42 38 37 34 32 31 30 30 31 30 30 30 31 31 31 32 33 35 36 37 38 39 38 38 38 39 39 38 38 38 37 37 38 40 41 41 39 38 38 38 39 40 41 41 38 36 33 32 32 34 35 35 36
23 22 21 19 17 16 17 17 19 20 21 22 23 23 23 23 24 25 27 28 29 30 31 32 32 32 33 34 34 35 36 36 36 35 34 34 34 34 35 36 38 39 38 35 32 32 29 29 30 32 33 33 34 36

GFSWCAN_500_spd_081.txt.gz
Wind_Speed
53 57 48 37 38 41 44 47 49 51 53 55 53 51 49 47 45 47 47 58 65 64 57 54 53 48 43 38 33 25 30 31 31 62 64 64 63 39 25 23 32 33 44 40 41 40 35 32 42 42 43 41 32 34
43 32 36 41 43 43 45 42 41 41 46 57 58 56 52 49 43 42 43 47 61 60 60 56 52 33 38 34 30 31 26 25 24 53 65 67 55 36 30 28 28 32 39 44 44 44 40 42 41 40 33 39 38 43
29 37 39 38 34 37 43 44 43 42 39 35 40 49 57 52 43 37 33 37 60 55 50 55 51 48 37 29 25 25 24 21 20 32 45 53 64 61 41 30 30 30 31 36 48 39 41 37 42 39 37 28 33 41
33 31 25 25 30 37 45 48 45 37 33 32 31 42 51 51 45 40 39 36 55 49 46 47 43 43 32 32 30 28 24 22 23 44 32 43 45 55 53 32 27 33 34 31 37 37 38 41 33 32 33 36 33 32
25 18 20 28 34 43 32 26 30 32 29 29 36 43 47 47 43 39 36 40 46 45 42 40 40 46 34 33 27 26 25 20 22 48 47 46 39 45 52 51 43 34 34 31 37 35 33 30 39 39 35 23 27 33
15 9 19 24 30 21 24 24 32 31 27 36 43 44 43 42 43 42 39 46 48 45 39 45 42 40 39 40 37 33 28 22 21 37 55 54 40 42 50 43 40 35 35 33 31 36 35 33 29 31 27 28 30 30
12 10 16 18 23 31 33 35 36 38 41 42 41 43 40 39 38 36 46 40 44 47 43 44 40 39 38 38 33 33 32 28 22 35 46 45 39 44 40 39 37 39 36 36 35 30 31 33 28 30 34 36 36 36
14 17 21 19 29 33 37 42 43 43 43 43 43 41 36 36 41 42 36 33 40 42 43 41 35 31 29 29 30 33 33 32 27 42 47 37 38 40 39 37 33 34 31 30 33 31 27 26 26 27 30 30 31 32
17 18 25 27 28 28 31 31 34 37 42 41 42 43 43 43 42 37 36 38 39 43 43 36 34 30 28 27 26 27 27 33 37 43 34 26 19 38 37 37 33 29 27 28 31 31 29 25 27 28 28 32 33 33
23 20 24 25 24 24 26 29 38 42 43 42 43 43 42 39 37 37 36 39 40 40 37 30 29 30 24 23 24 28 31 36 45 57 37 26 15 37 29 39 37 35 33 30 32 30 27 26 28 28 28 29 32 34
24 28 25 25 28 34 40 40 42 39 38 40 41 40 39 37 35 36 36 38 40 36 32 31 26 21 16 25 28 27 29 40 55 57 46 28 29 38 30 30 33 36 30 30 30 28 26 28 30 32 33 33 32 32
19 21 29 31 33 35 33 34 34 35 36 35 34 38 38 37 34 33 33 33 33 32 29 23 20 18 17 23 23 26 27 30 42 52 42 39 38 38 33 30 30 29 27 27 31 32 30 32 34 33 32 30 30 31
23 22 22 28 31 27 26 27 31 32 36 38 36 37 35 34 33 32 32 29 25 23 18 17 17 19 17 21 22 25 27 31 41 44 38 41 30 40 29 30 30 28 29 25 25 27 29 32 33 34 35 34 33 32
19 22 22 22 23 25 28 31 31 30 31 32 31 30 30 27 24 23 24 23 21 19 13 10 10 11 13 17 25 29 26 34 46 48 48 51 43 41 41 27 26 27 30 27 26 28 30 32 34 35 35 35 35 36
18 18 18 19 19 20 21 22 23 23 21 23 24 21 21 18 19 19 21 20 14 6 9 7 9 12 12 17 19 30 24 31 44 40 29 34 34 37 39 44 42 37 33 34 36 35 35 35 35 34 34 36 35 33
17 15 15 16 17 17 17 18 18 19 19 17 15 15 16 17 16 15 14 12 10 18 13 10 13 11 13 25 25 28 30 25 27 22 19 18 22 28 36 33 35 35 37 39 40 38 33 30 31 31 29 28 31 33
15 15 13 11 10 10 11 12 15 17 14 12 11 11 12 13 14 12 15 22 22 17 16 13 6 3 14 25 29 23 21 22 15 22 22 14 16 20 30 33 32 32 32 31 28 27 27 29 29 27 28 31 35 37
17 17 17 13 8 6 8 12 15 15 13 12 17 11 9 12 22 33 16 20 24 20 19 11 10 8 11 13 14 17 19 20 22 20 15 16 19 21 20 19 21 24 24 23 26 26 25 25 28 31 34 35 34 36
21 17 11 11 17 17 13 15 21 23 17 22 20 14 19 35 27 17 18 14 17 14 9 7 8 4 5 14 17 15 14 20 21 20 17 20 22 22 23 22 20 20 22 23 24 25 25 26 27 30 32 34 37 39
21 21 23 25 26 23 21 25 28 28 23 27 24 21 21 28 14 14 15 13 12 12 5 3 7 10 11 17 17 17 18 20 19 16 19 23 24 22 19 17 17 17 19 21 22 24 26 28 30 33 35 36 38 40
15 18 18 16 15 19 22 22 23 23 26 26 25 20 19 22 9 3 5 8 11 9 4 5 13 11 12 11 13 14 15 16 17 18 15 14 13 13 13 13 14 16 18 22 25 27 30 31 33 34 37 40 42 45
17 12 10 15 16 18 15 15 17 18 18 19 16 13 12 12 10 8 7 6 5 3 1 4 8 12 13 14 14 13 11 10 9 8 7 7 8 10 12 15 18 21 23 26 28 29 31 33 36 38 41 45 48 51
21 24 22 18 17 15 13 12 14 11 11 10 11 14 13 15 15 12 11 11 8 7 6 6 7 11 8 6 5 5 4 4 6 7 9 10 12 15 17 20 22 24 27 30 32 33 36 39 41 44 47 49 51 52
14 14 13 14 16 18 18 17 16 16 14 10 10 11 10 9 10 10 11 11 11 10 8 9 9 9 9 8 8 8 8 10 11 14 16 18 20 21 23 25 26 28 31 33 36 38 40 43 45 47 48 49 51 53
7 10 10 11 11 10 9 8 7 6 6 6 6 6 5 6 6 6 6 6 5 4 4 5 7 8 9 10 12 14 16 17 19 20 22 24 26 28 29 31 33 36 38 40 42 44 45 45 46 47 50 51 53 55
4 5 5 5 5 5 5 4 4 3 5 5 6 6 7 8 9 10 11 12 13 13 14 15 16 18 19 20 21 22 23 24 24 26 27 28 30 32 34 36 38 40 42 43 43 44 45 47 48 49 50 52 54 54
4 5 6 7 7 7 7 7 7 7 8 9 10 11 11 12 13 14 15 17 18 20 21 21 22 22 23 24 25 25 26 27 28 30 31 33 34 36 37 38 39 41 42 43 45 46 46 46 48 50 51 51 52 54
12 13 13 14 15 16 16 17 18 18 19 20 21 21 21 21 21 21 22 23 23 24 25 26 26 27 28 28 29 30 31 32 33 34 36 37 38 39 40 41 41 41 42 43 43 44 45 46 48 48 49 50 51 51
17 19 21 22 23 24 25 25 25 26 26 27 27 26 25 26 27 27 28 29 29 29 29 30 30 31 32 33 33 34 35 36 37 38 39 39 39 39 39 40 40 41 42 42 42 44 46 47 47 47 47 47 47 46
25 27 28 27 27 26 25 24 25 27 28 30 31 32 33 34 34 34 34 34 35 35 36 36 36 36 37 37 37 38 38 38 38 38 38 38 39 39 40 40 41 40 39 41 44 45 44 43 43 43 43 42 41 39
27 26 25 24 25 29 35 38 39 40 41 40 41 40 40 39 38 39 39 40 41 41 41 41 40 40 39 39 39 38 38 38 37 37 37 38 39 39 38 37 37 40 42 41 40 39 39 40 41 40 38 36 34 34
30 35 37 38 38 37 35 34 34 33 31 31 31 32 33 33 32 32 33 33 34 35 35 34 33 33 34 34 35 35 35 35 35 35 35 35 36 37 38 39 37 36 36 36 36 38 38 38 36 34 32 32 32 34
32 32 32 31 29 27 25 22 21 21 21 22 23 23 24 25 26 27 27 26 25 25 25 26 26 27 27 28 29 30 30 30 31 31 31 32 32 31 30 31 33 33 35 36 36 35 33 32 31 29 29 31 32 32

GFSWCAN_500_spd_084.txt.gz
Wind_Speed
37 40 44 47 50 53 53 50 47 44 43 45 49 54 59 60 59 61 61 59 57 59 57 55 51 51 47 42 37 38 36 36 34 32 33 28 42 73 66 56 42 20 33 40 36 39 45 38 38 43 54 52 51 51
41 46 48 41 35 37 41 44 45 46 46 46 45 44 42 42 45 47 46 47 55 60 59 58 54 49 45 45 39 37 38 35 32 30 32 26 38 60 63 52 39 20 33 31 40 43 42 41 43 45 46 45 54 47
33 25 28 33 37 35 33 36 39 41 43 45 46 46 47 46 47 45 45 44 43 44 49 63 59 48 48 49 43 39 35 34 32 30 31 30 38 60 63 57 41 24 16 25 38 33 38 39 40 28 31 36 41 40
20 26 28 26 25 34 39 43 45 44 43 41 41 44 44 48 47 45 44 42 37 34 40 52 55 50 44 45 40 35 31 33 30 27 27 28 36 51 64 46 56 31 24 18 23 25 32 40 36 37 32 32 34 36
21 23 17 23 28 36 46 44 40 49 49 43 41 42 47 46 46 44 41 34 29 29 35 46 49 47 45 43 39 33 29 23 27 26 26 28 34 31 40 39 40 29 25 21 20 23 25 21 39 36 34 35 28 34
17 10 16 18 23 29 27 25 28 33 39 43 41 40 35 38 47 47 42 34 28 28 36 42 43 48 49 42 31 31 32 29 27 26 22 31 33 34 36 32 52 54 42 38 37 33 25 18 27 26 36 39 35 31
9 10 13 15 19 23 17 14 26 32 34 35 34 32 41 45 47 41 31 21 24 38 27 27 36 37 46 44 31 32 37 36 32 29 24 32 43 39 39 39 31 47 46 38 36 36 33 25 21 22 23 27 29 28
12 11 11 16 22 23 28 23 29 34 37 38 38 39 42 44 44 38 30 34 45 26 16 32 35 41 41 37 31 39 37 37 31 28 25 29 51 44 40 36 37 42 43 47 40 35 32 28 24 19 20 22 24 26
11 17 16 20 21 22 26 30 40 41 43 44 44 44 41 41 39 34 31 36 42 20 24 27 39 46 37 42 43 42 36 34 34 31 31 31 41 58 36 37 44 42 40 34 39 41 30 27 21 18 20 22 23 25
13 16 15 19 27 31 31 34 39 41 41 41 42 40 40 37 37 38 37 42 55 33 26 34 37 38 39 37 36 35 35 34 34 32 32 35 38 55 57 37 43 39 32 31 41 40 31 28 26 23 24 26 28 27
16 23 26 29 30 34 36 37 37 37 35 36 41 44 43 43 39 35 36 41 40 37 39 41 38 34 31 28 29 30 29 29 28 27 28 37 38 46 45 40 29 33 35 35 34 31 28 29 28 27 29 31 30 30
23 27 31 32 30 32 37 37 36 37 37 36 36 38 36 34 36 39 43 43 41 36 36 35 33 32 26 21 20 25 26 28 25 27 32 45 43 44 36 39 28 31 36 33 33 30 29 26 27 31 33 33 32 31
20 24 25 28 27 28 30 33 33 33 34 35 35 36 35 34 33 34 36 34 31 30 28 23 20 19 20 21 21 22 28 28 22 19 34 53 49 29 31 38 32 32 32 34 35 34 33 31 32 32 31 31 32 31
17 16 16 17 19 23 24 26 28 28 27 28 30 31 30 28 26 25 24 23 24 23 25 24 21 20 21 25 27 22 23 23 25 25 26 52 28 26 33 28 30 31 35 23 28 37 34 33 35 34 32 30 31 31
18 19 19 18 20 21 22 23 23 25 24 23 23 21 20 18 18 19 21 23 23 21 17 13 15 12 12 15 15 12 16 20 17 15 24 46 31 33 34 33 34 34 38 32 31 35 29 28 29 28 29 30 30 31
16 15 16 16 16 17 18 18 18 18 19 17 14 16 14 16 18 20 21 19 15 10 13 12 10 8 12 14 20 20 22 24 15 11 27 41 33 31 31 34 30 32 35 36 37 37 35 32 31 32 30 29 29 31
17 16 14 13 14 15 15 17 18 18 17 16 15 14 15 17 18 15 16 13 10 18 15 14 11 7 10 15 16 17 9 9 12 17 31 34 35 34 39 32 32 35 34 34 35 36 36 37 34 29 28 28 29 32
13 13 13 13 14 14 14 14 17 15 15 15 14 12 12 11 12 6 8 15 18 16 10 9 1 4 6 5 14 18 21 23 25 24 24 23 21 22 29 32 39 45 47 46 45 43 39 30 27 27 31 27 26 31
13 12 9 6 8 11 13 13 15 13 12 10 7 5 7 11 18 17 14 13 9 7 11 6 4 8 10 15 13 15 20 24 20 16 18 18 22 21 19 21 20 23 25 27 27 26 23 25 26 25 26 29 31 33
12 11 14 12 12 10 18 19 16 15 12 9 8 23 26 21 14 14 13 8 12 7 2 7 10 5 6 8 11 14 18 19 18 18 14 21 19 18 25 24 21 22 22 20 21 23 26 27 27 28 30 31 33 36
23 20 15 13 15 17 21 26 25 18 17 20 22 25 20 19 14 12 8 8 9 3 8 7 8 10 14 14 16 18 17 18 17 15 13 17 20 24 24 23 23 21 21 22 23 24 25 26 27 30 33 35 36 38
16 19 21 22 20 19 20 20 20 20 21 19 19 16 11 5 3 4 1 0 4 7 7 6 11 13 14 14 13 13 14 16 17 16 15 15 15 17 18 19 18 18 18 19 22 24 27 28 30 32 34 36 38 41
19 20 23 22 20 18 17 17 16 18 17 15 12 10 7 5 3 6 4 1 2 3 3 3 9 12 10 10 10 10 9 9 9 10 10 10 10 11 12 14 16 18 20 22 24 27 29 30 32 35 38 40 42 44
24 25 25 24 23 22 20 16 12 10 11 11 9 7 6 6 8 7 7 7 5 2 1 5 11 11 10 8 6 5 6 6 7 7 7 9 10 12 14 16 18 21 23 25 28 30 33 35 38 40 42 43 45 46
14 16 17 17 18 19 19 20 19 16 12 9 9 9 9 9 8 8 8 9 8 7 9 10 10 10 10 9 8 9 9 10 10 12 13 15 16 18 20 22 24 26 29 31 34 36 37 39 40 42 44 47 49 51
8 10 10 10 10 9 8 8 6 5 4 3 2 2 2 3 4 5 6 7 8 8 9 10 12 13 14 15 16 16 16 17 18 19 20 21 23 25 27 29 30 32 34 36 38 40 42 43 45 46 46 47 48 49
2 3 3 2 2 2 1 1 3 4 5 5 6 7 8 8 9 10 11 12 13 13 14 15 15 16 17 18 19 20 21 22 23 24 26 28 29 30 32 33 35 37 38 40 42 42 42 42 43 44 45 46 47 49
6 7 7 7 7 8 8 9 10 10 11 12 12 12 13 15 15 16 18 19 20 21 22 22 23 24 24 25 25 26 27 28 29 30 31 32 33 34 36 37 38 39 39 39 39 41 42 43 43 43 42 45 47 48
11 13 15 15 16 16 17 16 16 16 16 17 17 18 19 19 20 21 21 22 22 24 25 27 28 29 29 30 31 32 32 33 33 33 34 35 36 36 37 38 39 39 39 39 40 40 40 39 39 42 45 45 45 44
20 21 22 22 22 21 19 19 19 20 25 29 29 31 31 31 31 31 32 32 32 32 33 34 35 36 37 37 38 38 39 39 39 38 38 38 38 39 39 39 39 38 38 38 36 36 38 41 43 42 41 41 41 41
25 25 24 22 20 23 28 32 35 37 38 38 38 37 38 37 37 37 36 36 37 38 39 40 40 40 40 40 40 40 39 39 39 38 38 38 38 37 37 36 35 35 35 35 37 40 39 37 36 37 38 39 39 38
25 26 29 32 35 38 39 40 39 38 37 36 34 32 30 29 28 28 28 28 28 27 28 29 30 31 31 31 32 33 34 34 34 34 34 34 33 32 33 34 35 35 35 34 33 33 33 35 37 37 37 35 35 33
34 35 35 35 35 34 33 31 29 25 24 22 22 22 22 22 23 23 24 25 25 25 25 24 23 23 23 25 27 28 29 30 30 30 31 31 31 30 29 29 29 28 29 30 32 33 35 35 35 33 32 32 30 30

GFSWCAN_500_spd_090.txt.gz
Wind_Speed
15 15 16 17 19 22 24 26 28 30 32 34 36 37 39 40 40 40 38 37 38 36 32 30 30 29 27 26 24 20 22 22 25 28 30 27 23 21 19 16 14 12 20 20 23 37 38 14 15 21 33 30 33 36
17 18 19 21 23 25 28 30 33 35 37 39 41 42 43 43 44 45 46 45 43 46 43 39 38 36 34 32 31 29 26 27 28 29 28 27 28 24 21 19 18 13 14 29 30 18 18 30 30 24 18 30 28 32
26 27 29 30 32 33 35 38 40 42 44 45 46 47 48 48 49 50 50 50 50 51 49 46 44 43 43 40 37 35 34 33 34 31 29 31 29 26 23 20 20 22 18 20 37 32 15 14 20 26 35 33 28 29
25 25 25 27 30 33 37 41 44 48 51 52 53 53 52 53 53 52 53 53 53 53 53 53 50 48 44 43 41 41 38 37 36 36 34 32 31 29 27 24 24 24 25 22 32 35 41 19 23 24 33 30 28 27
15 15 17 19 22 24 28 32 36 39 41 42 42 41 39 37 36 35 36 38 42 48 55 57 54 50 43 42 39 38 39 37 37 36 36 35 34 33 30 28 27 24 25 26 26 36 42 21 22 25 29 33 40 24
13 12 16 18 18 20 23 27 31 35 39 39 37 39 38 38 37 37 36 35 30 33 42 47 51 47 45 43 41 40 39 39 37 36 38 36 36 34 32 30 26 27 28 30 28 35 36 23 25 21 21 27 32 35
9 11 13 17 22 25 30 35 40 43 44 46 45 39 34 32 36 36 31 26 28 29 28 30 30 35 42 47 50 47 45 43 41 41 40 35 34 36 34 27 24 27 28 33 32 41 29 23 26 24 24 20 19 18
14 15 16 14 13 17 23 19 27 36 43 46 46 43 38 36 36 34 31 27 29 30 29 28 26 29 30 29 33 41 49 47 44 42 40 36 35 37 35 27 20 25 30 31 37 46 35 29 27 22 20 17 23 19
12 12 10 5 8 16 7 6 8 16 35 43 44 45 43 43 42 36 30 27 28 30 29 25 24 23 21 26 29 27 33 48 46 45 40 39 38 39 28 22 18 26 28 27 38 40 40 37 27 17 16 16 21 17
12 13 15 16 15 17 12 20 22 31 38 46 51 48 46 44 41 32 27 26 28 28 27 28 20 16 18 17 22 22 25 36 42 43 35 41 37 30 27 20 18 24 26 22 33 41 42 37 33 26 18 18 19 20
15 16 20 19 21 24 24 33 28 34 42 44 47 46 45 40 36 33 29 29 28 27 25 22 21 18 16 22 22 21 26 32 35 38 30 34 24 27 24 20 22 22 30 25 21 38 45 42 38 28 25 24 22 21
20 21 22 25 28 34 34 34 34 34 33 36 40 40 39 33 30 29 29 27 22 22 22 16 19 23 16 22 25 23 24 29 28 32 34 29 28 24 22 26 30 28 32 35 28 37 44 47 44 34 29 28 29 29
20 25 27 29 28 33 35 37 35 35 36 34 38 39 33 31 24 21 25 30 23 18 17 16 13 15 17 22 21 22 23 28 28 32 35 31 24 26 24 27 29 33 26 29 41 39 44 43 39 37 35 33 31 30
16 22 27 28 29 29 30 33 36 39 38 30 26 28 28 27 16 24 25 22 19 20 23 20 21 20 22 25 26 27 29 30 31 29 28 28 29 29 30 30 31 32 30 30 40 44 41 40 38 36 32 29 27 23
14 15 21 28 26 27 29 30 35 28 24 23 18 16 18 17 20 24 22 17 21 15 13 18 20 23 24 23 24 25 25 26 24 21 22 28 32 31 31 32 28 24 22 25 39 38 35 32 33 30 29 28 24 20
16 15 15 15 19 18 17 16 16 14 13 13 11 13 15 14 15 15 18 18 19 18 18 21 20 22 22 22 20 19 21 21 19 14 15 13 17 24 32 28 20 18 17 26 30 24 24 29 25 25 22 24 30 28
14 16 17 17 15 13 11 11 10 10 8 9 8 12 15 17 18 19 19 19 20 19 19 20 18 17 17 19 18 16 16 18 18 18 19 18 14 26 24 24 26 22 22 26 30 26 35 27 31 24 33 33 30 28
11 11 10 9 9 9 9 8 8 9 8 9 9 11 12 13 14 15 16 17 17 16 17 17 16 19 20 19 18 14 11 9 13 16 11 11 11 20 24 21 23 21 23 32 20 12 19 21 20 24 27 26 28 31
12 11 10 11 10 9 9 9 9 9 11 12 14 15 15 15 14 14 15 16 15 10 13 12 14 17 21 23 25 26 23 20 16 15 21 11 18 24 24 20 14 14 13 19 20 14 15 21 21 24 26 27 28 25
10 8 6 8 9 11 11 8 10 12 11 11 11 11 10 9 6 8 10 13 13 11 10 12 17 21 25 30 32 31 26 18 16 17 18 18 27 24 18 15 18 17 14 12 14 17 19 21 23 23 23 24 26 26
3 6 6 7 10 10 10 8 10 7 3 4 7 12 15 14 9 6 3 4 8 9 14 16 19 17 12 9 7 10 18 20 21 18 18 21 17 16 14 12 14 15 14 15 17 18 21 21 19 20 19 21 22 23
10 6 3 10 12 12 9 7 5 5 9 13 17 16 12 9 5 3 5 5 9 12 12 7 3 6 6 9 9 14 16 25 22 20 20 17 15 18 18 16 19 18 17 18 16 17 18 19 19 18 19 22 24 27
9 11 12 14 17 11 8 6 8 14 12 11 10 7 4 1 4 4 1 4 6 3 6 10 13 14 16 18 16 15 14 19 22 21 21 22 20 22 21 17 17 17 18 18 18 20 20 19 20 22 25 28 31 34
9 10 15 17 14 11 10 9 10 10 9 8 8 6 3 5 6 4 3 4 6 6 11 11 11 10 12 14 15 15 13 12 14 15 16 19 22 20 17 18 18 19 20 20 21 21 22 24 26 29 32 35 38 40
10 9 11 10 7 7 8 10 9 8 7 6 7 7 6 6 4 4 3 4 4 5 8 8 8 6 5 4 5 4 5 6 6 8 9 10 10 11 13 14 16 18 19 21 24 26 28 31 33 36 39 41 43 46
15 15 15 11 10 10 8 10 9 8 7 7 5 4 4 3 2 2 3 3 3 3 4 5 6 7 7 7 7 7 7 7 8 8 9 11 13 15 18 20 22 25 27 29 31 34 36 39 41 42 44 45 46 47
8 8 7 7 6 5 4 2 1 1 1 2 3 3 3 4 4 5 5 6 7 9 10 11 11 12 12 13 14 15 16 17 18 20 21 22 24 26 27 29 31 33 35 37 39 40 42 43 44 45 46 46 47 47
2 2 3 3 4 4 4 5 6 7 8 9 10 11 12 12 12 13 14 14 15 15 15 16 18 19 20 21 21 22 23 24 26 27 28 29 31 32 33 35 37 39 40 41 42 43 44 44 45 45 45 46 46 45
10 10 10 11 12 12 13 14 16 16 17 17 17 17 16 18 18 19 19 20 20 21 22 22 23 24 25 26 27 29 30 32 33 34 35 35 36 37 37 39 40 41 42 43 44 44 45 45 45 46 45 44 43 42
15 16 18 19 19 19 20 21 22 23 22 21 22 25 26 27 29 29 30 31 31 32 32 32 33 33 34 34 36 37 38 38 39 39 40 41 41 42 43 43 44 44 44 44 44 44 44 44 44 43 42 42 43 43
22 23 24 24 24 24 24 23 22 22 25 29 33 36 38 39 40 41 41 42 41 40 39 38 38 39 40 42 43 45 46 46 46 45 44 43 42 43 43 44 44 44 43 43 43 42 42 42 42 41 41 42 41 40
22 21 23 25 28 31 33 36 38 41 44 45 44 44 43 42 39 38 34 32 31 30 30 30 30 30 31 32 33 35 37 38 39 40 40 41 41 41 40 40 40 40 40 40 39 39 39 39 39 39 38 37 37 38
29 31 34 36 39 39 38 37 35 32 31 29 28 26 25 24 23 23 24 23 23 23 24 25 26 27 28 29 30 31 32 33 33 34 34 35 35 35 35 35 35 35 35 35 35 35 34 33 32 33 35 37 39 40

GFSWCAN_500_spd_093.txt.gz
Wind_Speed
20 18 17 16 17 18 19 20 23 24 25 26 28 30 33 32 28 28 22 21 16 14 15 16 18 19 17 16 17 17 19 19 17 16 14 12 14 14 12 9 8 9 12 10 9 18 21 31 30 28 16 29 30 36
21 19 17 16 15 15 16 17 19 20 23 27 29 29 28 28 29 29 29 24 20 21 20 17 18 18 19 19 22 21 20 20 19 17 15 14 14 17 15 10 10 6 8 9 12 10 12 22 27 26 19 7 32 31
26 26 26 26 24 22 21 21 22 24 26 28 29 30 31 31 32 33 31 30 29 31 30 27 23 22 25 25 26 27 24 23 21 20 19 19 16 16 16 13 14 10 10 8 7 19 22 8 10 25 15 14 15 27
19 19 19 20 24 28 29 29 29 30 31 32 33 34 35 35 35 37 38 37 37 38 38 36 32 30 27 29 31 30 28 28 27 28 26 24 20 19 18 16 15 16 15 11 10 10 24 29 15 9 14 17 19 22
15 15 15 17 18 20 22 26 32 36 37 38 38 39 41 42 43 41 42 41 41 37 42 43 40 37 33 30 29 30 31 31 33 34 33 28 25 24 19 19 15 18 19 17 9 13 12 26 24 25 20 18 18 24
13 11 14 16 18 19 20 21 25 28 30 32 35 38 41 43 45 45 46 46 44 43 45 46 46 43 41 38 34 32 30 31 34 37 37 32 26 27 26 23 17 21 21 21 14 15 11 23 26 29 22 16 23 22
12 16 19 18 19 21 24 27 27 27 27 29 30 31 30 29 30 30 30 25 28 30 34 35 34 36 42 43 42 40 36 35 35 38 39 35 30 31 31 27 15 21 22 24 20 16 13 20 28 32 27 24 24 19
14 15 17 18 19 21 23 28 33 35 35 33 29 28 27 32 31 30 27 26 25 27 28 27 23 21 27 33 37 37 36 36 38 39 39 40 38 37 36 25 16 22 25 26 23 20 19 22 33 32 28 25 22 25
13 12 11 12 12 13 14 20 28 34 39 40 37 34 34 36 31 25 25 25 25 24 23 22 20 17 21 21 21 25 30 37 42 42 40 42 42 42 30 23 16 22 27 29 27 23 23 21 42 34 29 28 24 20
9 12 14 13 6 12 10 3 13 28 38 42 44 43 42 36 31 28 24 23 20 21 22 21 20 19 19 16 15 17 20 20 29 35 43 48 45 36 32 26 23 26 28 29 26 24 26 28 42 47 33 25 21 16
15 18 18 16 17 23 23 19 25 31 43 47 53 44 41 38 34 28 24 24 22 20 18 18 19 18 15 21 17 20 14 18 16 22 30 42 38 32 32 29 28 26 28 26 22 20 20 23 37 45 36 30 21 15
20 23 25 23 22 26 30 31 36 35 39 46 41 38 39 37 31 28 25 21 19 17 16 18 22 15 14 15 16 19 27 12 16 18 26 26 26 23 31 33 28 27 25 25 22 19 25 23 30 44 38 33 23 18
15 21 25 28 28 30 30 31 33 29 36 36 36 36 34 34 33 27 21 17 14 12 17 17 20 22 19 23 21 23 20 21 23 18 20 23 26 21 22 25 26 27 25 25 22 22 24 22 21 35 36 35 27 22
20 20 22 25 27 32 31 30 33 36 32 31 32 32 33 32 26 20 14 16 18 21 19 20 18 16 18 15 18 19 23 22 23 20 14 13 18 20 23 26 23 24 24 23 24 23 24 23 27 30 30 27 26 26
21 24 24 25 32 37 36 35 31 28 23 24 21 23 21 18 19 21 25 23 18 20 20 19 18 17 21 20 20 22 22 21 19 14 13 14 18 21 24 26 26 25 24 22 25 27 27 26 31 32 29 29 30 29
14 17 16 20 24 22 19 22 22 22 21 14 13 20 16 16 21 25 23 18 17 13 12 12 14 16 19 22 21 21 19 15 13 15 15 17 19 19 20 23 26 25 24 20 20 19 17 22 27 27 29 31 32 30
15 11 12 10 8 8 6 7 10 10 10 12 13 15 14 15 14 11 12 13 16 15 14 15 15 16 18 21 22 22 20 18 16 15 16 17 15 10 11 12 13 19 19 16 14 18 17 17 23 28 26 29 32 30
12 12 13 12 11 10 8 8 7 7 7 10 11 13 13 14 16 15 14 15 15 16 17 17 18 19 20 21 21 21 21 17 13 10 15 20 22 18 17 16 17 19 20 17 20 23 23 23 20 28 29 31 36 31
10 9 10 10 9 8 6 6 7 8 10 11 11 11 13 16 17 16 16 15 15 15 14 15 17 17 18 16 18 20 22 22 20 12 12 17 17 16 14 16 24 23 19 22 16 16 19 15 15 18 19 19 18 18
9 8 7 6 7 8 9 8 9 9 8 8 8 9 8 7 7 8 10 11 12 13 11 13 14 14 18 22 26 29 33 34 33 26 18 21 18 14 15 19 24 20 21 23 20 21 15 12 12 11 12 12 13 16
4 6 6 6 6 7 8 9 8 5 4 5 7 6 5 10 8 6 3 3 8 10 12 13 17 23 27 29 27 24 20 14 10 18 22 21 21 16 24 24 24 21 19 18 16 16 17 18 18 17 18 19 20 21
8 5 6 8 8 7 6 6 4 6 6 7 12 14 9 6 4 4 6 9 12 14 16 19 21 18 12 9 7 5 11 15 18 18 24 22 26 24 22 22 21 22 22 17 15 15 17 19 19 20 21 22 23 24
4 1 7 9 9 7 6 3 3 10 13 10 11 7 3 1 4 4 6 6 6 4 4 2 1 5 10 9 7 8 16 18 17 19 22 22 22 22 20 19 18 18 18 17 19 20 21 20 20 21 21 22 24 25
9 10 14 13 9 5 6 6 8 7 6 4 4 5 6 5 2 1 3 7 6 8 9 9 8 9 11 15 15 12 11 16 18 18 18 16 17 18 19 20 19 16 16 17 20 20 19 19 20 21 23 25 27 29
13 16 14 11 7 5 5 5 5 4 4 4 5 1 2 3 2 2 3 4 6 4 4 5 5 5 5 5 7 9 9 6 5 10 14 18 21 21 21 18 19 18 18 18 18 19 21 22 24 26 29 31 33 36
14 12 13 8 7 6 4 5 4 3 2 2 2 3 3 3 2 2 1 1 1 2 1 2 3 4 4 4 3 3 2 2 3 3 4 5 6 7 10 13 16 18 20 21 23 25 27 29 31 33 35 37 38 41
11 10 9 8 7 6 5 4 3 3 3 3 4 4 5 6 6 6 5 5 5 6 7 8 8 8 9 9 11 11 12 12 12 13 14 15 16 18 20 22 23 25 27 28 30 32 34 35 37 39 41 42 44 45
2 3 2 2 2 3 4 5 6 7 8 9 10 11 12 14 14 13 13 13 13 13 14 15 16 16 17 17 17 18 18 19 20 21 22 24 25 27 28 29 30 32 34 35 37 38 40 41 42 43 44 45 46 47
9 9 10 11 12 12 13 14 14 14 14 15 16 17 19 20 21 21 22 22 22 22 21 21 22 22 23 23 24 25 26 27 27 28 28 30 31 32 34 35 37 38 40 41 42 43 43 43 44 44 45 45 45 45
16 17 18 19 20 21 21 22 22 23 23 23 22 21 21 24 26 28 29 30 31 31 31 32 32 32 32 32 33 33 33 34 35 35 36 36 37 38 39 39 40 41 41 42 43 43 44 44 43 43 44 44 44 43
23 23 23 23 23 23 23 24 25 27 28 29 30 30 32 36 38 41 41 42 41 40 39 38 37 37 36 36 36 37 37 38 38 38 39 39 40 41 41 42 42 42 42 42 43 43 43 43 42 42 42 40 39 39
22 21 22 23 25 27 30 32 35 36 38 40 42 44 45 44 41 38 35 33 32 30 29 28 28 27 27 27 28 28 29 30 31 32 32 33 35 36 37 38 39 40 40 40 39 39 38 37 36 36 36 36 36 35
23 27 30 32 35 37 36 35 34 32 32 31 30 30 30 29 28 27 27 25 24 23 23 23 24 24 25 26 27 28 29 30 32 33 34 34 34 34 34 33 33 32 32 31 32 32 32 32 31 31 30 31 32 35

GFSWCAN_500_spd_099.txt.gz
Wind_Speed
31 30 28 25 22 20 17 16 16 18 20 20 21 23 25 25 22 20 21 21 20 27 26 26 24 28 22 21 21 17 15 16 16 19 14 11 8 9 17 19 10 16 18 17 19 17 13 13 17 20 28 29 30 35
29 27 25 24 26 24 19 14 14 15 20 21 23 24 24 24 22 22 21 18 22 27 27 28 28 27 25 25 30 27 21 19 14 11 7 6 5 10 18 23 19 16 16 13 12 11 13 17 12 16 26 25 29 31
26 23 22 21 19 17 17 18 16 14 15 22 25 24 24 23 22 17 19 21 21 28 25 30 30 29 28 25 29 26 23 23 20 17 15 14 10 11 17 19 19 21 22 19 10 10 13 15 23 21 13 19 21 25
21 19 18 16 15 14 14 15 16 17 15 15 21 27 27 24 21 21 23 19 25 28 31 25 31 27 29 23 21 21 23 21 18 18 15 11 8 10 15 21 20 17 14 13 12 9 4 19 18 14 15 15 21 18
17 16 15 16 16 15 14 14 15 19 18 17 17 20 23 25 25 23 22 23 25 24 30 25 26 26 23 21 20 19 19 17 17 18 15 11 9 9 10 14 16 18 13 12 12 14 8 5 8 8 12 13 19 14
15 16 16 15 14 14 14 14 15 18 22 21 19 21 24 25 25 23 25 28 26 23 30 23 14 13 17 19 20 20 20 20 22 22 19 16 12 13 13 13 19 18 19 17 15 11 7 6 7 8 11 12 14 10
15 13 15 18 19 19 18 16 17 18 21 26 25 24 25 25 26 26 26 20 21 23 22 23 17 17 16 15 15 16 17 19 24 25 23 21 20 20 16 17 16 19 20 18 17 15 11 10 7 10 9 15 18 15
13 16 18 19 19 20 22 22 20 20 21 24 26 28 27 27 28 27 22 21 23 24 24 23 21 19 19 18 19 20 21 24 26 26 24 22 22 25 22 18 14 21 24 23 21 19 14 15 10 11 12 12 19 23
11 11 13 15 18 20 22 25 27 23 24 26 25 23 25 30 30 24 23 21 21 23 27 25 21 19 24 23 24 26 25 28 28 30 29 29 29 31 27 22 15 25 30 27 24 22 19 19 17 14 12 12 14 22
8 4 4 9 12 16 24 27 31 32 31 33 36 35 31 25 24 25 25 26 27 29 29 18 17 17 18 20 19 19 21 20 23 23 26 31 32 33 32 30 21 28 29 28 28 27 27 24 23 21 20 15 15 17
2 2 6 5 6 13 19 27 32 37 38 39 41 39 31 26 25 25 25 25 24 21 15 16 17 17 16 15 15 18 19 19 19 18 23 24 19 28 29 33 34 35 30 33 31 29 29 27 25 25 24 20 21 20
7 7 11 11 2 13 20 29 32 32 38 38 35 34 32 29 29 24 24 23 20 18 16 17 17 19 17 14 12 16 16 18 17 16 22 19 19 20 24 26 30 38 39 40 39 35 31 29 27 27 27 24 25 27
12 14 18 18 19 22 26 33 35 34 36 41 37 34 34 32 26 22 19 18 17 13 13 14 15 15 16 17 18 18 20 21 18 20 18 17 14 20 24 29 32 36 45 45 44 41 36 33 31 29 28 28 27 27
16 21 24 26 24 26 29 35 35 39 43 41 40 35 32 28 22 18 16 13 15 15 14 14 16 18 18 17 19 18 20 21 25 28 24 17 18 21 22 23 26 30 39 44 42 41 37 34 33 31 29 28 27 27
21 25 25 25 28 30 29 27 33 39 37 37 36 32 30 27 23 15 16 16 15 16 16 15 17 16 19 19 18 18 19 18 15 12 17 24 21 15 16 18 15 17 23 33 35 35 35 33 32 30 29 29 28 23
25 22 23 26 29 25 24 25 29 29 31 34 34 31 28 24 18 18 16 13 14 15 17 17 14 14 13 21 19 17 16 13 10 17 17 15 15 13 13 15 17 17 21 25 26 28 28 30 31 32 32 31 30 29
22 23 24 27 27 25 24 22 22 20 22 23 22 18 17 17 18 16 14 12 13 15 16 15 13 15 15 13 13 16 19 18 17 16 17 17 18 16 18 19 20 21 23 25 24 27 26 27 31 31 30 31 34 35
6 4 11 14 18 17 14 14 14 16 18 21 19 18 17 16 15 15 16 16 13 13 14 17 16 17 18 18 17 19 20 22 22 22 22 21 19 18 19 19 22 21 22 22 24 27 27 27 27 26 26 25 28 32
10 9 3 5 4 4 5 14 13 13 17 21 19 17 17 16 16 17 16 15 16 17 18 18 17 15 17 20 21 22 23 25 26 27 28 27 23 21 17 18 19 19 16 18 20 24 28 27 28 26 25 18 22 20
10 9 10 9 9 9 10 15 16 17 17 18 19 18 17 17 16 16 17 17 16 18 20 21 21 20 21 23 24 25 27 28 29 30 29 29 27 27 23 20 21 23 24 19 20 22 23 24 22 24 22 20 23 25
11 12 11 10 10 11 13 14 14 15 16 16 17 19 19 20 18 17 18 19 21 21 22 21 21 22 22 24 26 27 29 32 35 37 38 38 35 31 26 24 21 20 24 23 22 21 17 17 22 24 23 19 20 23
12 11 10 10 11 11 9 8 7 8 10 12 12 10 9 9 8 7 7 10 12 13 15 16 17 19 21 25 29 29 25 21 17 15 16 19 24 26 26 23 21 19 17 18 17 19 17 17 18 19 19 18 16 16
6 6 7 8 7 6 6 5 8 10 10 12 13 9 5 4 6 9 13 15 17 17 16 15 13 11 11 11 8 3 2 2 4 4 4 8 13 18 20 15 11 11 16 15 16 14 14 15 15 15 16 20 21 20
3 3 6 6 5 5 5 9 11 10 9 3 1 3 4 6 4 3 2 2 5 6 7 6 5 5 6 6 4 4 3 3 2 2 4 5 9 12 12 10 10 8 10 13 16 16 18 19 21 23 23 24 25 26
4 7 10 9 8 9 11 9 6 5 2 1 3 3 4 4 3 4 5 5 4 4 5 5 3 1 2 5 5 2 3 5 5 4 6 8 9 11 13 14 14 16 19 20 20 21 22 23 26 27 28 29 30 30
11 12 10 8 9 9 9 8 6 4 4 4 4 5 3 3 3 2 2 2 2 1 1 2 4 5 5 5 5 3 2 2 4 8 13 15 16 16 16 18 21 23 25 25 25 26 27 28 28 28 28 29 30 31
12 11 9 8 7 7 7 6 5 3 2 1 2 3 3 5 6 6 6 7 8 8 9 9 10 10 11 11 11 11 11 11 11 11 10 11 12 13 15 17 18 20 21 22 23 24 26 27 28 29 31 33 34 36
8 5 4 4 3 3 3 3 4 5 6 7 9 10 11 12 13 14 15 15 15 16 17 18 18 18 17 17 17 17 16 17 17 18 20 20 20 21 21 22 22 23 24 25 27 29 30 32 34 35 37 39 40 42
2 3 4 5 7 8 9 10 11 11 12 13 13 15 16 17 18 19 20 21 22 22 23 24 25 25 26 26 26 26 26 26 25 25 25 26 27 28 29 30 31 32 33 34 35 36 37 39 40 41 42 43 44 45
11 13 15 16 17 16 16 16 16 17 18 19 20 22 23 24 25 27 28 29 30 30 31 32 32 33 34 34 34 34 34 34 34 35 35 35 36 36 37 38 39 40 40 41 42 43 43 44 45 45 45 46 46 47
18 19 20 19 17 17 18 20 21 23 24 26 29 31 34 35 35 35 34 34 34 34 35 36 37 38 38 38 37 37 37 37 37 37 38 39 39 39 40 41 42 42 43 43 43 44 44 45 45 46 46 47 47 47
19 15 14 14 16 20 22 26 29 33 35 34 32 29 25 23 23 25 27 28 29 29 30 30 30 29 29 29 29 29 29 30 30 30 30 31 31 32 33 34 35 36 37 38 38 39 40 40 41 41 41 41 41 41
12 15 19 22 26 30 30 29 26 22 20 20 22 25 28 28 29 29 30 30 30 30 29 28 27 27 27 26 26 26 26 27 27 28 28 29 30 31 32 33 34 35 36 37 37 38 38 38 38 37 37 36 36 35

GFSWCAN_500_spd_102.txt.gz
Wind_Speed
43 42 41 35 31 29 27 24 24 19 17 14 13 12 12 15 19 22 22 23 22 17 24 25 23 20 18 16 20 17 16 13 8 9 10 11 8 6 9 14 8 4 10 13 17 19 16 24 23 24 27 29 27 33
42 40 37 31 29 26 25 27 26 18 14 13 15 16 17 18 19 19 19 19 19 20 24 25 24 21 21 20 23 24 22 15 7 13 9 8 5 1 4 13 3 14 9 10 9 11 6 15 22 22 28 35 37 34
39 39 31 28 26 23 22 19 18 20 13 12 19 20 20 20 19 18 19 17 19 22 27 24 20 27 21 19 28 25 18 20 19 17 17 14 13 7 7 16 9 14 9 18 8 11 11 17 21 20 25 28 35 33
39 31 27 26 24 22 19 16 14 15 17 14 16 22 22 21 19 18 15 19 19 22 22 24 25 24 25 24 28 26 25 20 20 21 19 18 13 14 12 15 21 23 17 19 19 13 14 18 21 19 20 14 20 21
30 26 25 23 21 19 18 16 14 14 15 15 15 20 24 22 20 17 21 22 22 23 21 16 27 25 21 22 23 25 23 21 23 19 17 13 9 9 12 20 20 21 16 16 14 13 19 16 11 14 21 15 19 25
26 23 21 20 20 19 19 18 17 17 16 17 16 17 20 25 24 23 25 25 23 20 20 18 27 23 24 25 23 19 21 19 17 15 11 7 8 8 9 12 14 19 20 19 20 22 13 5 7 6 15 9 18 27
20 19 20 19 18 16 16 15 14 15 16 18 19 17 19 23 27 27 23 19 17 18 26 23 24 19 23 25 22 18 18 19 18 16 14 12 12 12 8 7 11 13 17 18 17 18 17 13 11 9 6 3 13 18
18 19 20 20 19 19 20 20 17 16 17 19 23 20 22 25 27 28 28 23 21 21 28 34 15 13 13 13 14 14 15 17 17 14 13 14 15 16 11 8 8 12 16 18 19 20 18 16 12 10 8 6 6 11
15 17 18 18 19 20 22 22 22 20 20 21 22 26 28 30 26 23 21 20 20 22 24 24 17 13 12 12 14 15 18 18 20 20 18 20 18 20 19 14 13 17 21 22 22 20 18 18 15 14 12 8 6 8
10 14 16 17 17 20 23 24 23 25 24 27 28 32 32 28 27 25 24 22 21 22 23 21 19 14 13 16 16 19 21 21 21 20 20 21 19 21 24 24 22 22 23 23 24 23 25 23 23 18 19 16 14 9
6 10 11 14 16 19 23 28 29 31 33 34 34 32 26 26 27 28 26 26 27 25 22 18 18 18 19 15 17 19 18 18 17 15 19 19 18 20 20 23 24 25 28 28 26 28 31 30 28 27 24 22 21 19
1 5 11 15 19 25 24 26 31 33 35 32 33 29 27 28 31 32 30 28 26 23 17 18 21 23 16 18 18 19 19 19 16 16 18 19 17 19 21 22 23 23 27 32 34 34 33 32 32 32 27 26 27 24
4 8 2 8 10 23 26 26 32 37 37 33 36 32 32 33 31 29 26 24 18 15 16 18 16 15 16 16 17 16 14 13 13 14 18 18 14 17 19 21 22 22 26 31 35 41 42 40 38 36 32 31 30 28
17 16 8 10 18 29 29 31 36 38 37 39 36 34 32 29 26 21 19 17 15 16 16 16 15 15 16 16 17 16 16 17 17 19 21 18 19 21 21 22 26 28 28 30 35 38 47 48 45 41 38 35 33 32
22 29 26 26 27 28 31 32 30 34 37 36 32 31 29 25 24 15 14 18 19 18 17 15 14 15 17 17 18 19 17 15 16 16 14 19 24 28 27 27 25 25 27 28 29 34 35 45 46 44 41 38 36 35
24 27 30 31 28 28 33 31 32 30 31 31 28 28 28 25 17 15 18 18 16 16 17 17 17 16 14 15 16 16 18 18 15 15 15 14 15 20 22 20 21 22 23 21 22 24 26 29 35 40 39 37 36 35
23 24 21 16 13 21 24 27 29 24 23 28 30 27 21 13 15 15 15 14 13 15 16 17 16 14 13 10 11 15 13 11 16 18 19 19 18 18 19 20 20 20 21 25 26 24 26 28 29 30 34 33 33 34
14 19 21 22 20 19 19 21 19 19 22 23 22 18 15 17 18 16 15 14 13 12 13 13 13 13 12 12 14 14 15 18 19 21 23 23 22 23 23 22 23 24 21 22 22 22 22 23 29 29 28 29 32 33
5 8 8 11 14 12 14 14 15 18 20 20 19 18 17 17 18 17 16 14 14 13 14 15 19 19 19 18 19 21 23 25 26 27 28 29 29 29 30 27 25 23 22 20 17 16 16 17 25 27 28 28 29 31
6 4 3 3 4 5 11 14 12 15 20 20 19 19 18 17 16 16 16 16 18 18 18 20 21 22 22 23 24 25 27 29 31 34 35 35 36 36 34 30 28 27 24 20 18 13 11 15 15 18 23 26 28 27
7 7 7 7 8 8 14 13 14 17 18 18 18 18 18 19 20 20 21 21 22 23 22 22 23 24 26 27 28 30 32 34 35 37 40 40 41 41 39 34 30 27 27 22 22 23 21 16 17 17 18 21 22 25
10 9 9 10 11 11 12 12 14 15 16 17 18 19 20 19 20 21 21 21 21 22 23 24 25 26 27 29 30 31 32 34 35 33 29 27 28 30 32 36 32 26 28 24 21 21 19 20 18 17 15 14 17 20
10 9 9 9 10 9 8 9 9 9 12 12 11 10 9 9 10 12 15 17 19 21 23 24 24 25 25 26 26 23 18 11 8 8 8 9 8 2 9 15 22 22 21 16 11 13 14 17 18 15 16 16 16 17
5 5 7 7 6 8 10 12 9 10 9 7 6 7 8 11 13 15 16 16 15 14 14 12 10 8 6 5 2 2 3 3 4 5 5 5 5 6 9 12 13 13 12 14 13 12 12 13 14 15 17 17 18 18
3 6 7 7 6 7 10 9 7 5 3 2 3 4 4 3 2 1 1 1 1 3 5 5 4 3 4 4 3 3 5 7 8 7 6 5 4 5 9 11 11 12 13 14 15 16 18 19 21 22 22 22 22 22
7 9 8 7 7 6 6 5 4 3 3 3 3 4 3 2 2 3 3 3 3 2 2 4 5 6 7 7 7 7 8 8 7 7 9 11 12 11 10 11 13 16 17 18 19 21 22 23 24 24 25 25 25 26
10 8 7 5 5 4 6 5 4 3 1 1 2 2 3 4 6 6 7 8 9 10 10 11 11 12 13 13 13 14 14 14 14 13 13 13 13 14 16 18 19 19 20 21 22 23 24 25 25 25 26 27 28 29
10 7 6 5 5 4 3 3 3 4 5 6 8 9 9 11 12 13 14 15 16 16 18 19 20 20 21 21 22 21 21 20 20 19 20 20 20 21 21 22 22 22 22 23 23 24 25 27 28 29 30 32 33 35
3 2 2 3 4 5 6 7 7 8 9 11 12 13 15 17 18 20 21 22 23 24 24 25 26 26 27 27 28 28 29 29 28 28 28 28 28 29 29 30 30 31 32 32 33 34 34 35 36 37 38 39 40 41
6 8 10 11 11 11 11 11 11 13 14 16 18 19 21 23 26 28 30 31 32 32 33 34 35 35 35 36 36 37 37 37 37 37 37 36 36 37 37 38 38 39 39 39 40 40 40 41 41 42 42 43 44 45
15 17 17 16 14 14 15 16 18 19 22 25 29 31 33 32 30 28 26 26 26 27 28 29 30 31 33 34 35 36 37 37 38 38 38 38 39 39 39 39 40 40 41 41 41 42 42 42 43 44 44 45 45 45
19 17 15 13 14 16 19 23 27 30 32 30 27 24 22 22 26 28 28 29 30 31 32 32 33 33 33 33 33 31 31 30 30 30 30 30 31 31 32 32 33 33 34 34 35 35 36 37 38 38 39 40 41 41
15 14 15 17 20 23 28 29 26 21 20 21 23 26 28 28 29 30 31 31 32 32 31 30 29 28 27 27 27 27 27 27 28 28 28 28 29 29 30 30 31 31 32 33 34 35 36 37 37 38 38 38 37 37

GFSWCAN_500_spd_105.txt.gz
Wind_Speed
48 45 43 41 43 44 42 36 31 28 27 24 21 16 12 8 6 17 22 21 20 20 18 22 24 19 18 18 19 16 12 2 7 7 3 5 3 4 4 1 5 4 9 17 25 25 13 18 26 24 22 29 34 36
46 44 41 40 43 41 40 34 28 27 27 22 17 14 10 10 11 12 12 14 16 17 15 19 20 19 19 18 20 21 17 14 17 7 5 7 5 7 3 10 2 8 10 11 10 8 8 13 21 28 27 26 29 33
44 41 39 41 42 39 36 30 26 24 20 17 15 16 14 15 14 13 17 17 16 13 15 13 14 21 17 20 24 21 22 20 17 13 11 12 9 10 8 5 5 3 15 9 7 7 8 3 14 19 27 28 28 31
41 39 40 40 38 37 31 25 23 20 14 16 16 15 18 17 16 17 17 17 15 12 14 17 19 18 17 17 23 25 22 18 16 15 12 13 9 8 7 7 10 4 12 4 2 11 4 11 12 16 18 24 23 27
39 40 39 36 36 32 27 22 19 16 14 13 15 15 19 19 19 18 18 16 13 14 17 14 14 16 16 13 16 23 20 18 17 16 14 13 10 11 11 13 15 13 12 7 11 13 13 11 17 17 19 18 16 12
38 36 34 34 31 27 23 20 18 16 14 14 13 14 15 22 22 21 18 12 17 19 21 17 14 14 14 16 21 23 22 20 16 15 14 11 12 9 12 18 18 19 20 18 16 16 14 15 8 10 5 7 16 12
31 30 31 28 25 23 21 20 19 17 17 16 14 15 15 19 22 13 7 20 26 22 22 18 16 16 14 14 14 16 18 19 17 13 11 9 11 8 8 9 16 20 22 21 21 23 21 17 11 8 2 3 9 12
26 25 23 22 22 20 18 16 16 14 15 16 16 16 15 17 22 20 26 27 26 23 23 18 16 15 14 14 15 14 14 15 14 12 9 12 14 9 3 2 9 12 15 18 21 23 19 15 14 12 8 6 9 7
16 16 18 20 20 21 20 20 19 17 15 16 16 17 20 20 21 28 27 25 25 23 28 21 16 15 12 12 10 9 11 12 12 10 11 13 11 12 12 9 11 13 15 14 15 19 17 16 15 17 12 8 9 8
15 16 18 20 22 23 23 23 22 22 21 21 25 25 20 18 26 27 28 27 27 25 21 23 23 12 11 12 8 9 13 16 15 15 15 15 14 15 16 16 16 17 17 16 17 18 18 18 20 19 16 12 13 10
13 17 19 21 22 22 23 24 24 25 28 28 26 24 21 25 26 28 29 28 28 25 18 22 20 18 16 14 14 17 16 15 8 10 10 12 10 11 11 12 14 17 22 22 22 21 21 23 24 23 24 19 21 17
10 12 14 17 20 21 21 23 25 25 28 26 24 20 25 29 29 29 29 28 24 21 18 17 18 18 18 16 16 17 16 15 11 14 15 12 11 13 14 15 16 17 18 20 24 28 29 28 27 27 29 26 27 26
6 12 16 21 24 26 25 22 23 29 30 29 27 24 27 32 33 29 27 26 22 15 16 19 18 18 18 19 16 15 15 12 16 18 16 11 12 14 15 19 19 20 23 24 26 27 30 33 35 33 32 31 31 30
3 3 9 17 21 23 30 28 28 34 35 33 31 27 26 29 29 24 18 18 15 14 15 16 18 15 15 17 16 15 15 16 17 16 11 12 17 21 21 20 21 20 21 24 28 30 33 36 37 40 42 39 37 34
12 14 15 21 28 28 30 30 34 34 33 34 30 29 25 21 17 13 13 14 17 18 16 15 15 14 15 16 15 16 17 19 18 15 11 15 17 20 23 27 28 28 26 27 24 25 29 34 40 42 43 45 43 40
25 23 27 27 27 26 27 31 36 35 29 26 26 25 23 21 18 15 13 15 17 15 14 14 14 14 15 17 16 18 20 19 14 11 14 14 16 16 17 18 18 21 23 23 24 25 24 22 27 34 36 36 40 43
23 28 28 32 33 28 27 28 32 32 29 27 25 22 22 19 18 14 15 14 13 13 14 15 16 18 18 17 15 7 8 12 14 16 16 18 20 19 19 18 19 19 20 21 21 23 22 23 22 24 26 27 28 30
16 18 23 22 22 20 20 21 19 21 18 19 19 17 14 16 18 19 17 15 15 13 15 16 18 17 17 12 7 10 13 13 15 18 20 21 23 24 24 23 23 23 22 23 24 23 22 22 20 20 22 28 29 28
15 18 19 17 16 18 19 21 16 15 14 13 17 15 13 15 18 18 17 17 17 16 17 16 15 13 12 15 17 18 19 21 23 25 27 28 29 29 29 29 28 28 28 27 25 23 22 17 16 17 18 23 27 28
9 10 8 7 8 12 15 16 16 16 17 17 19 17 16 18 19 19 19 19 18 18 18 16 15 17 18 20 21 23 25 28 30 32 32 33 35 38 39 39 38 37 34 30 26 24 21 18 15 14 12 13 19 23
6 5 5 5 5 6 13 13 14 16 18 18 19 19 19 19 18 19 18 18 18 17 18 20 22 23 24 26 27 29 30 30 31 33 36 38 38 41 44 45 45 42 36 31 26 24 21 19 21 14 14 17 18 19
5 6 7 7 10 9 13 14 16 15 15 17 17 17 17 17 17 18 18 20 21 23 25 26 25 25 26 27 29 30 30 31 32 34 35 32 25 26 29 30 27 28 33 27 23 22 20 19 19 19 16 15 14 15
9 9 10 10 10 11 12 12 12 13 14 15 16 16 17 19 21 23 24 23 24 23 24 24 24 25 26 27 29 30 29 26 19 14 13 12 13 15 11 6 5 8 16 20 19 19 22 19 17 16 15 15 15 14
7 6 7 9 9 9 11 11 9 8 9 9 8 9 10 11 12 14 17 20 22 24 25 25 24 22 18 14 13 13 9 7 7 8 8 6 5 5 7 9 8 9 10 13 16 14 12 12 12 13 15 16 15 15
6 7 7 9 10 11 10 8 7 6 5 4 4 6 7 7 6 4 3 2 2 2 2 2 4 6 8 9 8 7 6 7 8 10 10 9 8 7 5 5 6 9 11 12 14 15 15 16 16 17 18 19 21 22
7 9 8 9 10 10 7 4 3 3 3 3 2 3 4 3 2 1 0 2 2 2 2 4 5 7 9 10 11 12 12 11 11 12 11 11 10 11 12 12 13 15 16 17 18 19 20 21 22 23 24 24 25 26
11 9 8 6 5 5 5 5 5 5 3 2 1 2 3 4 5 6 7 8 9 10 10 11 12 14 14 15 16 17 17 17 17 17 17 17 17 17 17 16 15 17 19 21 22 23 24 25 26 26 26 27 28 28
13 10 10 9 7 6 5 4 2 2 3 5 6 7 8 10 11 12 14 15 16 18 19 20 21 22 23 24 24 25 25 25 25 25 24 23 23 22 22 22 22 22 23 23 23 24 25 25 26 27 28 28 29 30
8 6 4 3 3 3 4 5 6 8 9 10 12 13 15 16 18 20 21 23 24 25 26 28 29 30 31 32 32 33 33 33 32 32 32 32 31 31 30 30 30 30 30 30 30 31 31 32 33 33 34 34 35 35
2 4 6 7 8 8 9 10 11 12 13 15 16 17 20 23 26 28 29 30 31 31 32 32 33 34 35 36 37 38 39 39 40 40 39 39 38 38 37 37 37 37 37 37 37 37 37 37 38 38 38 39 39 40
10 13 15 15 13 11 11 12 13 16 20 24 27 29 28 26 24 23 24 26 28 28 29 30 31 31 32 33 34 34 34 34 34 34 34 34 34 35 35 35 35 36 36 37 37 37 38 38 39 40 40 40 41 41
16 18 18 16 13 13 14 17 22 25 27 25 23 24 25 25 26 27 27 27 28 29 31 31 32 33 33 34 33 33 33 32 32 31 31 30 30 29 29 29 29 29 30 30 30 31 31 32 32 33 34 35 36 38
20 19 17 15 15 17 21 24 26 25 23 23 24 25 24 22 22 23 26 28 30 31 31 30 29 27 26 24 23 23 23 23 23 24 24 25 25 26 26 27 28 28 29 29 30 31 32 32 33 34 35 35 35 35

GFSWCAN_500_spd_108.txt.gz
Wind_Speed
52 49 46 43 42 40 39 39 38 39 40 39 34 30 25 19 12 8 7 5 19 25 15 17 23 20 21 16 15 15 16 11 7 5 9 8 7 5 5 2 5 12 18 10 25 21 8 10 18 16 21 24 25 30
56 52 49 45 42 40 38 38 37 39 38 36 32 26 19 14 11 6 1 7 16 18 17 19 17 17 19 19 21 18 19 16 4 10 8 5 8 5 5 3 4 2 4 10 18 15 10 13 17 22 18 24 28 28
58 54 49 45 42 39 37 36 37 37 37 31 27 19 16 15 12 10 10 7 7 8 14 15 17 15 15 21 22 21 15 11 13 10 14 9 6 5 4 5 14 7 9 13 13 16 13 10 15 18 13 22 24 24
57 53 48 43 41 38 36 36 36 34 32 27 20 17 15 16 16 15 14 10 7 7 9 14 12 10 15 19 25 21 19 17 17 14 8 8 7 4 6 1 11 18 10 7 8 15 10 12 8 13 15 15 23 26
56 50 44 40 38 38 38 37 32 31 28 21 16 15 15 16 18 18 17 11 10 9 9 9 7 10 11 16 21 21 20 18 15 12 9 6 8 7 7 5 4 3 5 8 6 5 9 9 6 11 13 16 18 21
50 44 40 39 40 40 36 30 30 27 22 18 14 12 14 16 21 18 13 9 9 11 11 12 10 11 13 17 21 22 21 16 16 8 6 6 9 10 9 3 9 9 10 10 9 8 9 13 11 12 9 13 11 12
41 40 39 41 38 31 29 29 27 24 20 17 14 12 12 13 15 13 11 14 14 14 13 13 10 7 9 12 17 19 18 14 11 11 3 6 11 11 8 6 12 16 15 17 15 13 17 14 13 12 8 8 3 8
40 37 34 31 27 28 28 26 24 22 20 18 15 13 13 14 15 18 17 18 18 16 16 11 9 9 11 9 9 10 11 8 8 9 6 9 10 9 10 16 18 18 19 21 21 20 20 21 19 15 7 10 6 4
25 26 24 24 25 25 25 24 23 23 22 18 16 18 19 13 11 19 19 20 24 21 18 15 15 14 8 7 5 2 1 2 3 4 5 4 5 6 5 7 12 14 15 17 18 18 20 20 18 16 15 10 10 8
18 18 19 21 24 24 24 26 25 25 24 23 26 22 13 12 21 26 26 28 27 23 20 17 16 12 11 9 8 5 8 7 7 9 8 9 9 9 10 11 13 15 15 16 17 16 16 19 18 16 14 11 14 15
19 22 23 22 23 23 27 27 28 30 29 29 27 16 14 19 20 27 29 28 27 21 20 22 20 17 13 13 15 12 8 7 6 7 7 6 6 7 7 8 10 13 16 18 20 20 20 19 19 19 18 16 17 18
19 21 22 23 24 26 28 28 28 29 29 25 20 19 18 20 23 30 31 31 26 22 18 20 22 21 19 16 15 15 13 10 10 12 12 6 10 9 10 11 13 14 14 16 18 20 23 25 25 25 24 23 21 23
18 20 21 24 26 27 28 28 29 27 27 27 25 23 21 25 29 32 32 26 18 16 19 19 19 19 19 19 18 17 15 12 14 15 10 8 12 14 18 17 16 19 20 21 22 23 24 24 26 28 30 30 27 26
12 19 22 26 27 28 28 29 30 31 29 27 27 26 24 25 26 22 16 15 19 19 18 19 18 18 18 20 21 16 16 16 16 11 7 12 17 18 20 21 21 22 22 22 23 24 26 28 30 31 33 33 34 33
7 17 25 29 29 29 30 26 25 30 30 28 26 25 19 17 16 14 15 15 21 19 18 16 16 16 16 14 14 16 17 15 11 9 15 20 18 18 19 19 21 22 23 25 26 26 26 27 26 30 34 38 38 38
13 21 29 30 28 28 28 27 26 32 29 28 24 21 15 14 14 14 16 17 18 17 15 13 14 14 16 16 15 16 15 14 14 17 16 16 18 18 18 18 19 19 18 18 19 22 21 21 21 22 23 24 31 37
33 33 32 29 28 27 29 26 30 33 31 27 23 20 18 16 14 14 13 14 14 13 12 13 14 15 16 17 14 13 11 9 12 15 17 22 23 20 20 23 23 21 19 19 19 18 21 21 20 21 23 23 23 24
30 32 28 28 27 29 29 27 28 31 27 21 19 18 14 16 16 16 15 14 13 14 14 12 13 15 16 17 16 14 15 18 17 16 16 19 21 23 25 26 25 25 24 24 24 24 24 23 21 20 22 24 23 24
22 24 27 28 29 31 31 26 21 19 17 16 14 14 13 18 19 19 19 17 16 16 15 15 16 16 18 18 18 18 19 22 23 23 24 25 27 30 31 32 33 33 32 31 30 29 27 25 23 21 21 23 24 23
13 19 21 20 21 24 26 26 24 22 21 17 16 18 20 20 19 19 19 18 17 19 18 17 16 15 15 16 18 20 22 24 26 28 30 32 34 36 38 39 41 43 43 41 38 34 30 27 24 20 20 18 19 18
15 9 7 12 14 15 16 17 19 20 19 19 19 17 14 16 19 20 20 21 21 21 21 20 20 19 20 22 25 28 29 30 31 33 34 34 34 37 40 42 42 45 45 44 42 37 31 27 23 21 19 22 17 19
5 5 7 10 8 11 14 13 15 16 16 16 17 17 16 17 18 19 20 20 21 20 19 19 21 25 27 27 27 28 29 30 31 33 34 33 28 24 22 27 27 25 27 27 26 29 28 23 21 20 18 20 21 20
9 9 10 10 12 12 16 15 14 13 14 14 14 14 15 16 17 19 19 19 20 22 26 29 28 27 26 26 27 28 29 27 24 20 15 14 15 15 14 16 14 9 5 8 10 14 16 16 16 19 21 21 20 18
9 9 10 10 11 12 13 13 12 12 12 12 13 14 15 17 19 20 22 23 24 24 25 27 28 28 27 24 19 13 12 13 12 12 12 12 13 13 13 10 8 6 4 3 6 9 11 12 12 13 15 18 18 18
11 11 11 12 15 16 14 13 11 11 10 9 9 8 10 11 13 14 14 12 9 8 7 7 6 6 7 8 11 13 14 13 12 11 11 10 11 11 12 12 12 10 10 10 12 15 16 17 18 18 18 18 19 20
14 14 14 15 14 12 10 10 8 7 6 6 5 4 5 5 5 5 4 3 4 4 5 6 7 9 11 12 13 14 15 16 16 16 16 16 16 16 15 13 13 15 16 17 18 18 18 20 22 22 23 24 25 25
13 12 12 11 10 8 7 6 7 6 4 3 1 1 1 3 5 7 8 10 11 12 13 14 16 17 18 19 21 22 23 24 24 24 24 23 22 21 21 21 21 20 20 20 22 23 24 25 26 27 28 28 29 29
15 14 14 11 10 8 8 7 5 4 3 4 6 8 9 11 12 14 16 17 19 20 22 23 24 26 27 28 29 29 30 31 31 31 31 30 29 29 28 28 28 27 27 27 27 27 28 28 29 29 30 30 31 31
11 9 7 5 3 1 1 3 5 7 8 10 12 14 15 17 18 20 21 24 26 28 30 31 33 35 36 37 38 39 40 40 40 40 40 39 38 37 36 36 35 35 35 34 34 33 33 34 34 34 35 35 35 36
3 1 1 3 4 5 7 8 10 12 13 14 14 16 20 23 26 27 27 27 27 28 30 31 31 32 33 34 34 35 36 36 36 36 36 37 37 38 38 38 38 38 38 38 38 38 38 38 38 38 38 39 39 39
5 8 10 11 10 10 9 9 10 11 14 19 22 24 24 24 25 25 25 26 25 25 25 26 27 29 30 32 33 34 36 36 37 37 37 36 35 34 34 33 33 33 34 34 34 35 35 36 36 37 37 37 37 38
12 13 15 16 15 12 12 13 16 18 21 25 24 24 24 24 23 22 21 21 22 25 28 30 31 32 32 32 31 31 30 29 29 29 29 29 29 29 29 29 29 29 28 29 29 30 30 30 30 31 32 33 33 34
17 17 18 19 17 15 16 16 18 22 24 23 24 24 23 23 23 23 25 26 27 29 30 31 31 28 24 22 21 21 20 19 19 19 19 19 19 20 21 22 23 24 25 26 27 28 28 29 29 30 31 32 32 33

GFSWCAN_500_spd_111.txt.gz
Wind_Speed
58 55 52 49 46 42 39 37 36 34 33 35 37 39 38 36 31 21 15 13 16 8 20 12 18 16 16 14 14 14 12 11 8 5 9 8 3 5 1 2 7 13 13 7 15 11 16 15 19 14 15 8 5 10
63 59 56 52 48 44 40 38 36 33 32 34 36 37 36 32 26 16 13 7 5 7 13 15 20 24 19 18 19 16 15 20 12 9 6 9 4 1 6 5 12 11 6 6 6 14 10 14 20 11 9 21 16 17
66 61 58 54 52 48 42 39 36 33 32 33 36 35 34 28 20 16 14 8 4 4 9 9 15 16 16 16 15 19 20 21 12 15 5 9 9 5 4 5 15 14 4 3 6 10 11 12 15 13 7 4 8 15
68 64 61 57 53 49 44 40 35 31 31 33 34 32 30 23 18 17 15 11 8 7 9 14 17 16 10 14 17 20 22 15 13 12 7 8 7 3 5 6 12 7 7 8 8 5 14 15 17 16 12 14 14 12
70 66 64 59 54 49 43 38 33 30 31 34 31 29 25 20 18 18 17 11 8 9 8 11 4 8 11 14 19 23 19 17 14 11 8 5 5 4 6 4 5 3 9 16 7 4 15 11 4 9 6 10 13 16
70 67 64 59 53 48 42 35 32 32 35 30 28 24 21 18 16 17 15 9 10 11 8 7 9 8 9 16 25 24 17 14 13 10 7 5 9 7 8 5 7 6 3 3 2 2 3 6 2 2 7 9 13 15
49 60 61 56 51 45 38 34 34 36 30 26 23 21 17 14 13 14 14 17 11 10 7 12 11 8 9 15 17 16 17 16 11 7 7 7 11 9 10 11 12 8 9 8 7 6 7 10 8 4 7 6 8 9
32 41 48 49 46 40 37 37 36 30 26 22 23 20 16 14 11 13 18 16 13 10 11 14 14 15 13 11 13 18 14 10 8 7 4 6 8 9 11 13 13 14 14 14 13 14 14 14 15 15 15 10 11 6
29 34 40 41 42 40 40 35 31 27 23 25 23 20 19 12 7 12 18 16 13 12 17 16 17 15 14 11 8 8 4 4 4 2 2 5 8 7 11 14 15 17 17 16 17 16 17 16 15 16 18 12 13 11
33 37 40 41 39 36 35 31 26 25 28 26 28 27 19 11 15 16 18 19 15 19 19 15 15 13 10 9 11 10 8 5 2 1 3 7 8 10 11 12 14 15 17 17 16 16 15 16 17 16 15 15 13 13
31 33 33 33 32 31 28 28 29 31 35 36 30 24 18 17 19 18 20 20 18 22 17 16 16 14 11 13 12 9 7 5 4 5 3 3 5 6 8 10 12 15 17 18 19 19 19 20 18 17 16 16 17 17
28 29 29 28 27 27 29 31 34 35 34 30 26 22 20 24 21 18 20 22 21 22 19 18 14 12 9 9 11 11 11 10 9 9 5 5 9 8 9 11 13 13 13 15 15 17 19 21 22 22 21 19 19 20
26 27 25 27 30 31 33 35 34 32 32 31 28 27 26 24 22 15 19 20 19 19 18 16 16 18 17 19 17 17 15 12 12 8 6 11 14 14 15 15 17 18 18 18 20 21 21 22 22 23 23 24 25 24
24 28 28 26 27 28 31 32 32 34 34 34 32 29 30 26 13 4 10 15 18 19 18 17 16 16 17 19 19 17 16 14 8 5 8 15 15 17 18 18 19 21 23 24 25 27 27 26 26 27 28 29 30 29
24 27 31 33 31 30 30 30 31 33 34 33 30 27 24 16 9 10 11 20 22 21 18 17 17 16 17 17 17 18 17 10 6 11 15 18 20 22 23 21 19 17 18 19 21 23 26 26 27 27 27 29 29 31
26 30 29 29 28 31 34 34 32 33 32 29 26 21 19 14 10 16 17 20 22 21 19 17 16 16 18 17 14 13 11 9 13 18 19 21 24 25 25 21 21 21 20 20 21 21 19 20 20 21 19 20 22 23
27 30 34 32 32 32 31 30 34 35 33 28 24 19 16 12 17 21 21 19 17 17 17 15 14 14 14 14 11 11 14 15 17 18 16 16 19 22 24 24 25 25 25 26 24 22 21 21 19 18 20 21 23 24
31 29 30 31 31 31 29 29 33 33 31 27 20 17 15 14 17 18 18 17 16 16 16 15 17 16 14 12 14 17 18 19 20 22 22 22 21 22 24 25 25 28 30 30 29 29 27 26 25 23 23 23 24 26
31 32 31 30 30 29 29 27 30 33 27 20 18 16 12 16 17 19 18 17 17 17 17 16 14 11 13 15 18 20 20 20 23 24 25 27 28 30 32 33 35 38 39 40 40 39 37 35 32 29 27 26 25 25
25 27 27 26 27 28 28 26 25 24 21 19 19 18 18 21 21 20 18 17 17 16 14 14 14 15 17 17 17 16 17 20 23 26 29 32 33 35 38 40 42 44 46 48 47 46 44 41 38 34 29 26 25 24
24 24 23 25 24 24 24 24 23 22 21 21 22 23 23 23 23 22 19 17 16 17 17 17 18 19 21 21 21 22 24 27 30 31 33 35 36 38 39 40 40 40 39 39 38 40 39 41 40 35 29 26 25 23
12 15 17 19 20 19 19 21 21 22 22 20 19 19 17 16 16 17 18 18 18 19 20 21 22 23 22 23 25 29 30 30 30 31 34 36 35 30 22 19 21 26 24 20 17 13 20 22 27 29 26 24 24 23
12 11 13 10 14 16 17 19 20 20 20 20 19 16 15 14 15 17 18 18 19 20 21 22 24 25 28 31 33 31 30 30 29 25 21 18 16 16 17 17 17 18 19 18 12 6 6 9 13 17 20 23 24 24
10 11 14 16 15 14 15 14 14 14 15 15 15 15 15 15 17 18 17 18 20 22 25 28 31 31 32 32 32 30 26 19 16 15 16 16 17 18 18 18 17 16 14 13 10 4 2 6 10 14 17 18 20 22
12 13 13 13 14 15 14 14 13 13 12 12 12 12 13 15 16 17 18 19 21 22 21 19 16 14 12 12 12 13 15 17 18 19 19 19 19 18 16 16 16 16 16 15 14 13 13 15 16 17 18 18 19 20
15 16 17 17 16 14 13 12 10 10 8 8 8 9 10 9 9 9 9 9 9 10 11 12 13 13 14 15 16 18 19 21 23 23 24 24 24 23 23 23 22 22 21 20 19 19 20 19 19 20 21 23 24 24
15 15 14 12 12 12 12 10 9 9 7 6 5 4 3 5 6 9 11 13 15 16 18 19 21 22 23 25 26 27 29 30 31 32 32 33 32 32 31 30 29 29 27 26 26 25 25 26 26 26 27 28 28 29
15 14 13 11 10 8 10 9 7 6 5 5 6 8 10 12 13 15 17 19 21 23 25 27 29 30 32 33 34 35 36 37 38 39 39 39 39 39 38 37 36 35 34 34 33 32 31 31 31 31 31 31 32 32
14 10 8 7 6 5 5 5 6 7 8 10 11 13 15 17 18 20 22 25 27 31 34 35 36 37 37 38 38 38 38 39 39 39 39 39 39 39 38 38 38 38 38 38 38 37 37 37 36 36 36 36 36 36
7 6 3 0 2 4 6 8 10 11 12 13 13 14 17 21 25 28 29 30 30 30 30 31 32 32 32 32 32 33 35 36 38 39 40 40 40 39 38 37 37 36 36 36 36 37 38 38 39 39 39 39 39 39
2 3 5 6 8 7 7 7 7 9 12 15 18 22 25 26 24 23 22 23 23 23 24 25 26 28 30 32 34 35 36 36 37 37 37 37 37 36 35 35 34 33 33 33 33 33 33 33 34 34 34 35 35 35
9 10 10 11 12 12 10 10 13 15 16 18 23 24 22 20 20 21 22 24 25 26 27 27 29 30 32 33 34 32 30 27 26 25 24 24 24 24 25 25 25 26 26 27 27 28 28 28 29 29 30 30 30 31
15 15 15 15 16 15 14 14 13 15 18 21 22 20 20 20 22 23 24 24 24 25 26 29 31 32 31 29 25 22 20 20 20 19 19 18 18 18 17 17 18 19 20 20 21 22 23 24 25 26 27 28 28 29

GFSWCAN_500_spd_114.txt.gz
Wind_Speed
59 58 55 52 50 47 43 40 38 36 35 34 32 31 30 32 37 37 34 23 18 16 11 6 13 12 11 9 9 12 13 11 8 5 6 4 6 4 4 3 8 9 12 10 6 4 5 12 12 14 11 9 9 6
65 63 60 57 54 50 45 42 39 36 35 32 31 29 30 31 37 35 28 19 15 12 9 1 11 18 14 11 14 14 16 11 11 5 4 11 11 0 2 5 9 17 1 6 3 7 13 12 14 15 5 11 9 15
68 66 62 58 54 50 47 44 40 38 36 32 30 30 28 32 36 32 23 17 14 12 7 4 10 12 19 22 17 15 20 13 14 6 5 3 8 5 2 8 15 15 14 10 8 4 8 13 15 18 3 4 6 5
73 70 66 61 58 54 50 46 43 41 38 33 31 29 28 33 34 28 21 17 13 11 9 14 12 13 11 11 16 16 16 15 13 8 6 4 8 4 2 9 12 9 10 10 4 2 5 6 15 11 8 10 8 7
76 74 71 67 62 57 53 48 45 42 38 34 31 28 29 32 30 23 20 16 12 12 11 13 14 13 10 11 11 16 17 18 10 9 8 5 3 1 2 3 4 6 6 11 7 6 1 4 5 12 11 5 9 12
76 76 73 69 65 61 56 51 47 43 38 33 30 28 31 29 26 20 18 15 16 16 12 13 10 8 8 8 10 16 20 14 10 10 8 6 4 4 4 6 4 5 9 13 11 13 11 10 4 5 3 7 13 12
55 67 72 70 66 62 57 52 47 42 37 33 30 30 27 25 19 19 16 20 18 13 11 10 7 8 8 12 15 18 15 11 12 12 10 5 7 8 9 11 9 7 4 4 8 6 3 7 8 9 6 5 12 12
37 41 51 60 61 60 56 52 46 41 36 34 31 26 25 20 16 15 17 21 17 13 8 8 10 11 9 14 9 12 12 13 10 8 8 7 9 7 10 13 13 10 7 8 9 9 9 10 11 14 17 17 13 15
29 28 32 41 50 52 52 46 41 37 38 33 27 25 24 19 12 15 17 15 15 11 8 14 15 15 12 10 11 8 7 5 5 5 6 8 9 9 13 14 14 14 13 14 13 12 12 12 13 13 14 16 17 17
31 30 30 35 44 48 45 43 41 41 34 30 29 28 24 16 17 16 15 13 15 11 15 19 19 17 17 13 14 13 8 6 5 4 5 7 9 8 9 11 11 14 15 16 16 15 14 14 14 14 15 17 16 16
28 27 29 36 44 46 45 45 43 37 36 33 32 30 23 21 17 22 18 11 13 10 21 21 19 18 14 12 15 11 10 8 4 3 4 5 5 8 10 10 12 14 16 16 17 19 19 18 17 16 16 15 15 16
28 32 38 43 46 47 45 41 40 38 33 32 29 26 24 21 24 24 14 12 8 16 22 19 17 15 12 12 15 14 15 10 7 5 3 7 7 8 9 11 11 12 13 14 14 14 16 17 18 18 18 17 17 16
35 36 38 41 42 41 42 39 36 34 34 31 30 29 27 26 24 14 7 7 10 17 19 17 15 13 12 12 11 13 13 11 8 6 6 12 12 12 12 13 14 14 15 16 17 19 20 20 22 22 22 22 22 21
31 32 33 35 36 37 39 38 33 36 34 33 33 32 29 24 16 5 6 11 22 22 20 14 14 12 12 12 15 16 12 10 7 7 13 15 15 16 16 16 17 19 21 22 22 23 24 25 26 26 27 26 26 26
32 31 32 33 33 33 33 34 35 36 35 36 32 28 22 19 15 12 7 19 26 24 19 16 14 12 13 13 12 12 11 7 6 13 16 17 17 19 21 22 23 23 22 22 21 21 21 22 23 25 24 23 23 24
27 27 29 32 34 34 35 37 35 33 37 33 29 22 19 18 15 13 10 21 22 21 19 17 15 13 14 12 11 10 8 10 14 17 18 17 19 22 23 25 25 24 22 23 25 24 23 23 23 21 20 20 20 21
33 32 30 29 31 31 33 34 32 36 36 35 31 24 20 18 16 10 18 22 22 18 17 16 13 14 13 11 8 10 14 15 17 17 18 20 22 22 22 23 23 25 27 29 27 27 27 28 27 24 23 22 21 21
34 36 38 34 30 31 30 30 36 39 35 30 26 20 15 16 16 17 21 20 19 16 15 15 19 18 14 11 13 15 16 18 20 22 24 25 25 27 28 29 30 31 31 31 31 33 34 34 33 31 29 30 27 25
31 29 31 30 30 32 32 33 33 33 30 25 20 18 17 14 12 16 19 19 17 16 18 19 20 14 13 13 15 17 19 22 24 25 24 25 27 29 33 36 37 38 39 40 42 44 45 46 45 43 40 37 35 32
33 34 30 28 29 28 29 30 31 31 26 21 19 19 17 16 17 17 18 19 18 18 18 17 13 14 16 17 18 19 20 20 20 21 24 27 30 34 37 39 40 41 43 44 44 44 45 46 46 45 43 40 39 37
31 30 29 28 27 25 23 22 22 23 20 20 20 20 19 21 22 22 21 20 19 16 14 15 17 17 19 21 22 23 24 24 25 27 31 33 34 35 37 38 38 34 27 25 33 33 27 29 29 29 33 36 36 35
22 24 24 25 23 24 22 21 21 22 23 22 23 25 25 23 21 18 18 16 15 16 17 18 20 21 23 25 27 26 26 28 31 34 34 32 35 34 27 21 19 21 22 24 25 25 22 14 6 8 15 22 28 29
21 21 21 23 24 23 23 24 23 22 22 20 20 19 18 18 17 16 16 16 17 19 20 22 23 25 26 27 28 30 33 36 37 35 34 32 26 23 21 20 21 22 22 21 20 20 19 17 11 7 8 12 17 22
12 11 11 12 14 16 18 18 18 18 17 18 17 17 17 17 16 17 16 17 19 21 22 24 25 27 29 32 34 35 35 34 32 27 21 21 22 22 21 20 20 20 20 21 19 18 16 13 11 10 9 12 16 20
11 15 16 15 16 17 15 15 15 16 16 18 17 15 15 16 16 17 16 18 21 23 24 26 26 26 24 21 20 19 19 18 18 20 22 23 23 23 24 25 25 25 25 25 23 22 21 20 19 18 17 17 18 20
11 12 15 17 18 18 16 15 14 14 13 11 11 12 14 15 16 17 18 19 18 16 16 16 17 18 20 22 23 24 25 25 26 27 28 29 30 32 32 33 33 33 32 31 30 28 27 27 26 25 24 24 24 24
14 14 14 14 13 13 12 11 10 10 9 9 9 8 8 8 7 9 11 13 15 18 20 22 24 26 27 29 30 31 32 33 35 36 37 38 39 39 39 39 39 38 38 37 36 34 33 32 32 31 30 29 29 29
14 13 13 13 13 12 12 11 9 7 5 4 4 6 8 10 12 15 17 19 21 23 26 28 30 32 34 36 37 38 39 40 40 40 40 41 41 41 41 41 40 40 40 39 39 38 38 37 37 36 35 34 34 34
14 12 10 9 8 8 6 6 6 6 7 8 10 12 13 15 17 19 21 24 28 31 34 36 36 37 37 37 37 37 37 37 37 36 36 37 37 38 39 39 40 40 40 39 38 37 37 38 38 38 38 38 37 37
11 9 6 4 2 2 4 6 8 9 10 11 12 13 15 18 22 26 30 31 31 30 29 28 29 30 31 31 32 34 35 36 38 39 40 40 41 41 42 41 41 39 38 37 37 37 37 37 36 37 37 37 38 38
5 3 0 2 4 6 7 7 8 8 8 11 14 18 20 24 28 27 25 24 24 25 26 28 29 29 30 30 31 33 35 37 38 38 37 35 34 33 32 31 31 30 30 30 30 31 31 31 31 31 32 32 32 32
6 6 7 8 9 10 10 9 9 10 13 15 17 20 24 22 19 19 20 21 22 24 25 26 27 29 32 34 36 37 36 34 30 27 25 24 24 24 23 22 22 21 21 21 21 22 22 23 24 25 26 27 28 28
11 12 13 13 13 13 15 13 12 13 14 16 20 22 19 17 18 20 21 22 24 24 25 27 29 32 35 35 33 28 25 23 23 22 21 20 19 19 19 19 18 18 17 17 17 18 18 19 20 20 21 22 23 24

GFSWCAN_500_spd_117.txt.gz
Wind_Speed
55 54 53 51 48 44 43 41 38 36 34 30 30 29 27 27 27 29 32 34 31 27 20 20 14 1 8 3 6 9 12 10 8 6 4 5 5 8 5 8 13 14 11 7 8 6 7 9 1 8 9 12 2 5
60 57 56 53 50 47 46 43 40 39 36 32 31 28 27 26 27 28 32 33 29 23 18 16 11 3 6 8 8 10 15 14 9 6 2 3 3 3 7 14 11 14 5 10 7 3 5 5 6 8 8 7 1 1
64 62 59 57 54 50 48 45 44 41 37 34 31 28 27 26 27 28 32 31 27 19 17 16 11 4 6 11 14 19 14 10 8 6 2 2 3 2 5 7 8 13 10 12 11 10 5 2 1 8 8 2 1 1
69 66 63 60 57 54 52 49 47 43 38 35 32 29 28 27 27 27 32 28 24 17 17 17 9 8 6 11 14 16 12 7 12 6 4 1 2 2 2 2 9 12 16 16 11 6 6 6 2 4 10 9 5 4
72 70 67 65 61 58 55 53 49 43 39 35 32 30 28 28 26 28 30 25 22 18 18 17 14 12 9 13 17 15 11 9 12 4 4 2 1 2 4 3 3 6 10 15 20 17 9 5 10 7 3 4 2 7
78 74 70 66 62 58 55 51 48 44 40 38 34 31 29 28 25 29 26 25 22 17 15 15 13 11 12 11 9 9 9 14 7 5 4 4 2 3 5 7 5 5 9 13 10 10 7 14 11 5 4 7 11 11
72 73 71 70 67 63 59 56 52 47 43 39 35 32 30 27 27 30 24 22 19 17 13 12 11 7 7 5 5 9 14 12 5 5 7 5 4 6 7 9 6 3 2 3 5 2 3 1 4 7 8 9 11 7
55 55 61 66 66 65 63 59 54 49 45 41 36 32 30 27 29 22 22 20 17 15 11 9 8 5 6 9 9 6 10 8 6 9 8 8 7 6 10 11 9 6 4 6 8 10 9 9 12 14 16 18 19 20
50 48 46 45 49 56 59 58 55 51 46 42 38 35 32 27 22 20 20 17 16 12 8 10 10 12 12 11 9 6 9 7 7 6 6 7 8 9 11 12 12 11 9 10 11 10 10 11 12 14 18 20 19 18
42 41 41 41 41 42 47 50 50 49 47 45 39 36 31 26 22 22 19 15 13 9 8 13 14 18 14 12 10 9 8 6 4 2 5 6 9 10 11 11 11 11 11 13 13 13 13 13 13 12 14 14 15 14
37 35 35 35 34 35 42 45 47 47 47 41 37 34 30 25 23 23 19 12 8 7 11 18 20 20 15 12 11 10 7 7 4 3 7 7 8 8 9 9 8 9 9 10 11 12 13 14 14 14 15 14 14 12
35 33 33 30 28 32 39 45 45 43 40 37 34 31 26 26 26 22 14 6 3 5 14 19 20 18 15 13 13 15 11 11 7 6 8 8 8 8 8 9 9 10 11 12 13 14 14 15 16 17 17 17 16 15
34 33 32 30 32 37 43 46 45 43 38 33 30 29 30 30 27 18 5 1 3 9 18 20 19 17 16 13 13 16 13 12 9 7 9 11 10 9 10 11 10 11 11 13 14 16 17 18 19 20 20 20 20 20
33 33 34 36 39 45 46 45 41 37 34 32 32 35 35 25 20 9 6 7 12 21 22 18 18 16 15 14 13 13 11 9 7 8 13 13 13 12 11 11 12 14 16 18 19 20 22 23 22 22 23 23 22 22
35 37 40 44 44 43 42 40 37 35 33 32 31 27 25 19 16 12 12 11 13 26 26 22 18 16 13 11 8 6 5 6 10 15 16 16 15 14 15 16 18 18 20 22 24 23 22 23 23 22 21 22 22 20
36 37 38 41 42 42 40 38 39 37 34 23 28 24 19 18 14 13 11 11 14 24 25 20 17 14 13 9 7 8 9 11 14 15 16 16 16 16 18 21 20 20 20 22 24 24 25 27 26 26 24 24 22 21
34 35 38 37 34 36 39 38 38 36 32 29 23 18 15 15 13 12 12 12 14 21 20 19 15 14 11 9 8 11 13 16 16 16 17 18 19 21 24 25 25 25 27 27 28 30 30 30 29 29 30 29 27 26
30 31 36 38 36 34 32 34 36 34 29 21 19 17 17 12 12 13 16 14 16 20 21 18 18 18 15 10 12 16 17 16 17 18 20 23 25 26 27 27 29 30 31 34 35 36 36 36 36 37 38 38 35 33
34 34 33 32 31 32 34 35 33 28 22 22 22 20 17 15 14 15 16 17 18 20 19 19 20 17 13 14 16 17 17 19 20 22 24 24 24 24 25 27 31 35 38 39 40 40 40 38 37 39 42 43 42 41
31 29 30 29 30 32 32 31 28 27 26 24 23 21 18 18 16 12 12 15 18 20 20 18 12 12 15 17 18 19 20 21 23 24 25 26 28 28 30 34 36 36 39 38 31 26 26 31 38 33 34 32 34 36
33 29 24 24 26 28 26 26 27 29 26 21 20 19 19 19 18 16 16 16 17 17 15 13 14 16 18 19 21 23 24 26 27 29 29 29 29 32 35 35 37 35 25 22 21 22 25 26 28 25 23 13 15 24
29 28 26 26 24 24 24 22 21 21 20 18 18 19 20 23 21 17 16 15 15 14 15 16 17 19 21 23 25 26 28 30 31 30 30 32 36 38 36 36 30 26 24 23 23 23 23 24 24 22 18 13 9 14
24 25 24 23 21 20 20 18 20 21 22 22 23 24 24 21 17 16 14 13 15 16 17 19 20 22 24 25 27 29 30 31 33 36 38 39 39 37 32 25 23 23 21 21 21 22 21 21 22 21 18 14 11 11
20 19 20 21 20 18 17 19 20 20 19 17 18 16 17 17 17 17 15 15 16 18 19 21 23 25 26 28 29 31 33 33 31 27 24 22 20 20 21 24 26 26 26 26 26 27 26 26 24 22 21 19 17 15
18 19 18 17 17 17 15 16 15 15 14 14 15 15 15 16 16 17 18 19 20 21 22 23 24 26 28 29 27 25 24 24 25 25 25 26 26 27 28 29 30 31 32 32 32 32 32 31 29 28 27 26 25 24
10 11 16 18 19 19 18 17 16 16 17 16 15 15 16 18 18 16 17 19 21 22 21 21 20 21 22 23 25 27 28 30 31 32 33 34 35 35 36 37 37 38 38 38 37 37 36 35 34 33 31 30 30 29
10 11 13 15 16 15 15 14 13 12 12 12 12 12 12 13 12 10 10 12 14 16 19 21 23 26 28 29 31 33 35 36 37 38 38 39 39 38 39 38 38 38 38 38 38 38 38 37 36 36 35 35 35 34
13 13 14 13 13 12 11 11 10 9 9 8 7 5 5 7 9 12 15 17 19 21 23 25 28 31 33 35 35 36 36 35 35 35 36 36 35 35 35 35 35 36 36 36 37 37 37 37 37 36 37 37 37 37
11 12 12 12 11 11 10 9 8 6 5 5 6 8 10 13 15 16 18 21 25 28 31 33 32 31 30 29 30 32 33 34 35 35 36 36 37 38 39 40 40 40 40 40 40 39 38 38 37 38 38 38 37 37
13 12 11 9 7 5 3 3 5 6 8 9 11 11 12 14 17 21 25 28 30 29 27 26 27 28 29 30 31 31 33 34 36 37 38 39 40 40 39 37 36 35 34 33 33 32 32 33 34 34 35 35 35 36
10 9 7 5 3 2 1 2 4 5 7 7 10 12 15 19 23 26 26 24 23 24 25 26 27 28 29 29 31 33 36 38 40 41 39 35 32 29 27 26 26 26 26 25 24 24 24 24 24 25 26 27 28 28
7 4 2 2 4 6 7 7 7 8 9 11 13 16 18 23 23 21 21 22 23 24 25 26 27 28 29 31 33 35 37 37 33 29 26 24 23 23 22 22 21 21 21 20 20 20 20 20 20 20 21 22 23 24
7 7 7 8 9 11 12 13 13 12 12 13 15 18 21 21 19 19 20 21 22 24 25 27 28 30 31 33 34 35 32 27 24 23 23 23 23 22 22 22 22 21 20 20 20 20 20 20 20 20 19 19 19 20

GFSWCAN_500_spd_120.txt.gz
Wind_Speed
40 39 43 43 44 42 39 36 34 32 30 28 27 26 23 21 21 21 22 24 27 30 32 28 21 19 15 1 3 4 8 11 10 5 5 6 3 2 9 10 9 8 6 9 6 5 7 8 3 4 4 4 5 2
45 45 45 44 44 44 42 38 36 33 32 31 29 27 24 22 21 21 22 24 26 30 31 26 19 15 14 4 2 4 7 8 7 6 4 6 4 6 7 9 11 14 7 9 12 9 7 5 6 7 3 4 5 6
52 51 50 47 47 45 42 40 38 36 35 33 31 28 25 23 21 21 22 24 26 28 32 25 17 16 14 7 5 6 4 4 5 3 3 3 4 3 5 5 8 11 15 15 8 6 7 7 4 7 9 7 6 6
58 56 54 53 51 49 47 44 42 40 38 35 33 29 26 24 22 20 22 24 26 28 28 23 17 15 12 11 11 10 6 4 7 6 5 3 2 2 4 4 1 7 9 14 19 17 5 5 4 3 9 7 3 2
64 61 59 56 55 53 50 47 45 42 40 37 34 31 27 26 22 20 22 24 26 27 26 25 18 14 13 12 13 10 8 7 9 11 6 5 2 4 5 6 4 1 4 6 12 12 16 13 10 8 3 1 3 4
69 66 64 60 58 55 53 50 47 44 41 38 35 32 29 26 22 21 22 23 27 27 24 22 16 12 14 10 8 7 6 13 14 9 6 7 6 5 7 7 5 2 1 3 7 9 6 4 3 7 7 7 5 9
73 71 67 64 62 59 55 51 49 46 43 40 37 33 30 26 24 22 22 23 26 26 21 17 13 14 8 5 5 8 17 16 10 8 8 7 8 8 8 9 4 3 4 4 7 3 1 0 5 8 10 12 13 14
67 70 71 69 65 61 58 55 52 49 45 41 37 35 32 27 24 24 23 23 26 23 18 14 11 8 3 6 10 14 15 10 5 7 8 9 9 8 9 10 8 6 3 3 6 8 9 8 9 13 16 19 21 21
63 61 61 67 68 64 61 57 53 49 46 43 40 37 32 27 26 26 24 24 26 19 14 13 9 7 10 10 11 10 9 6 5 8 9 8 10 11 11 11 8 7 6 7 8 9 10 11 12 13 15 18 19 21
53 55 56 53 54 59 61 58 54 52 50 47 43 38 32 29 29 27 26 26 22 14 13 16 10 13 15 12 9 6 6 7 7 6 6 7 9 11 11 11 11 11 11 10 10 10 11 11 11 13 13 13 14 13
46 48 49 49 45 45 46 50 51 50 49 47 44 40 36 33 33 30 28 25 16 12 15 18 13 16 16 15 12 9 9 9 8 6 4 6 9 9 11 11 11 11 10 9 9 10 11 11 12 12 13 12 12 12
43 44 44 44 42 40 39 41 44 47 44 39 38 39 39 38 34 30 27 20 11 11 19 19 16 19 19 16 14 12 14 12 10 7 7 9 11 10 9 8 8 9 9 10 10 11 13 14 15 16 17 17 16 15
40 40 40 41 41 41 40 39 38 38 38 38 41 41 40 39 36 31 20 12 13 17 21 18 18 22 19 17 15 14 16 15 12 11 11 14 12 11 9 9 11 11 11 11 13 15 17 19 20 21 20 20 20 20
38 38 38 37 36 35 36 37 36 42 41 42 41 41 41 38 32 19 15 12 14 17 19 17 21 21 19 18 16 14 15 15 14 13 14 15 11 9 10 10 10 11 13 15 17 19 21 22 22 22 22 21 21 21
36 37 37 35 34 33 35 38 41 41 40 41 38 35 34 26 21 20 14 12 14 14 14 19 24 22 19 17 16 15 15 15 15 18 17 16 14 13 12 12 13 14 16 16 17 18 20 21 22 22 23 24 25 24
37 38 36 34 35 39 43 42 39 41 40 30 30 28 24 24 21 16 13 10 12 10 13 20 22 21 19 17 12 11 12 14 17 17 15 16 15 15 16 17 19 20 22 22 23 25 25 25 27 26 27 27 27 27
34 34 38 41 44 43 41 43 46 44 30 31 28 26 24 22 17 14 11 9 11 11 12 21 21 19 18 14 13 15 16 18 16 15 16 16 18 20 21 22 24 26 26 27 28 28 30 32 33 34 34 33 33 32
41 42 43 42 41 43 45 43 41 37 31 27 28 25 20 16 14 9 8 11 12 10 15 20 21 21 19 15 16 18 18 18 17 16 17 19 21 22 24 25 25 25 25 28 32 34 35 36 37 36 33 33 34 37
37 37 38 39 39 37 35 34 32 30 27 23 20 16 14 12 11 10 10 10 11 13 17 20 23 22 19 17 20 20 20 20 20 20 21 22 24 26 26 27 29 29 30 34 34 36 37 31 25 25 27 35 35 34
33 31 30 31 32 31 30 28 27 24 20 15 12 11 11 12 11 13 11 13 13 14 17 19 19 17 19 20 21 21 21 21 22 23 25 27 28 30 32 32 33 33 35 35 35 32 27 25 24 24 25 30 29 27
32 32 30 27 26 26 25 24 20 17 15 13 9 8 9 13 15 14 12 10 11 12 13 15 16 17 19 20 20 20 21 23 25 27 29 31 33 34 33 34 35 36 36 35 30 27 25 23 22 23 25 27 26 21
28 28 28 28 25 21 20 16 15 14 14 11 10 11 14 16 17 15 12 11 8 9 12 15 17 17 19 20 22 23 25 27 29 31 33 34 35 37 38 39 38 36 32 27 24 24 22 21 21 22 23 24 25 21
18 18 21 23 23 19 17 17 17 16 16 17 16 16 17 18 17 15 12 11 12 13 14 16 18 20 22 23 24 26 28 30 32 33 34 36 35 30 27 25 21 19 19 23 26 26 26 26 26 26 26 25 25 23
18 19 19 19 20 19 21 19 19 19 19 19 18 17 18 16 16 17 15 15 15 15 16 17 19 21 23 25 28 29 31 33 35 34 30 27 27 26 26 27 26 26 27 28 30 31 32 32 32 31 30 29 28 26
21 21 21 20 18 17 16 15 15 16 17 17 16 15 16 17 16 15 13 14 14 17 20 22 23 25 26 28 31 32 28 26 26 27 29 30 32 32 33 34 34 34 35 36 37 37 37 37 37 36 35 34 32 31
21 19 18 18 17 16 14 14 14 14 15 15 14 13 13 14 14 13 15 18 19 20 22 24 25 25 24 23 25 27 29 31 33 34 35 36 38 38 39 39 39 40 40 40 40 40 40 40 39 39 38 37 37 36
17 17 17 17 16 15 15 15 15 14 13 13 13 14 14 14 15 16 17 16 14 15 16 19 21 23 26 28 30 33 35 37 38 38 37 36 36 36 36 36 36 36 36 37 37 37 37 37 37 37 37 37 37 37
16 19 19 19 17 17 16 15 14 14 13 12 13 14 14 12 10 10 12 14 17 19 21 24 27 30 32 33 33 31 30 30 31 32 33 34 35 35 36 37 37 38 38 39 39 39 39 40 40 40 40 40 39 39
15 16 16 15 14 13 13 12 12 12 11 10 9 8 9 10 12 14 15 18 20 23 27 29 28 27 26 26 27 28 29 30 31 32 33 34 36 38 39 41 41 41 40 39 38 37 37 36 36 36 36 36 37 38
14 14 14 13 14 13 11 10 9 8 8 8 8 10 11 12 13 15 18 22 26 26 25 24 25 26 27 28 28 30 31 32 33 34 36 39 41 41 39 36 32 30 29 28 27 27 26 26 26 26 26 27 28 28
16 14 14 12 10 8 7 6 6 7 7 7 7 9 10 13 15 19 23 24 23 22 22 23 24 26 27 29 30 32 34 35 36 37 38 37 33 29 27 25 24 24 24 23 22 22 21 21 21 21 21 21 22 22
14 13 11 9 7 5 4 2 1 1 3 5 8 11 14 16 18 21 21 20 19 20 22 23 24 25 27 30 32 34 35 36 36 35 31 27 25 24 24 24 23 23 23 23 24 23 23 22 22 22 22 22 21 21
13 10 9 7 5 2 2 4 6 8 9 11 13 13 14 17 20 20 18 17 18 19 20 22 26 29 31 35 36 35 36 35 32 29 25 24 23 22 22 22 22 22 23 24 24 24 23 23 22 22 22 21 21 21

GFSWCAN_500_spd_123.txt.gz
Wind_Speed
42 45 42 53 51 48 45 39 36 34 31 28 25 21 19 17 16 15 15 15 17 18 22 26 29 30 22 19 17 7 7 6 4 3 5 5 3 4 7 5 10 8 5 6 4 6 6 8 3 2 5 6 7 6
35 37 41 43 42 44 40 40 38 35 32 29 25 22 20 18 17 16 15 16 18 18 21 26 27 27 18 15 13 7 5 5 4 4 6 5 4 5 5 5 4 9 12 7 9 6 3 2 5 7 1 5 9 6
37 37 40 35 36 39 40 41 40 36 33 30 27 24 21 20 18 17 15 16 18 18 21 26 27 25 15 14 12 8 6 7 6 4 6 4 4 5 5 4 4 6 10 13 11 3 2 2 4 5 15 8 4 4
42 41 41 43 42 45 45 43 40 37 34 32 28 25 24 22 20 18 17 17 18 17 21 25 27 23 15 13 13 8 10 11 11 9 7 7 5 6 7 6 8 2 2 4 10 8 2 1 2 7 8 7 1 3
50 46 43 43 44 44 42 41 40 38 37 33 29 28 27 23 22 19 18 18 18 18 22 26 26 21 15 15 13 11 13 16 14 11 12 9 6 6 6 8 5 2 5 1 5 8 7 4 4 1 0 2 6 4
57 54 49 45 44 44 43 44 43 41 37 34 32 31 28 25 23 20 19 19 18 19 23 27 26 20 17 16 14 15 15 18 16 14 13 11 8 8 10 9 6 4 1 1 3 6 5 2 2 3 6 9 12 12
62 59 56 52 50 48 46 46 44 42 39 37 35 32 29 26 25 22 20 20 18 19 22 26 26 20 16 15 14 12 15 17 17 16 13 11 9 10 12 10 6 5 4 4 7 5 3 4 7 11 13 15 18 20
68 64 60 57 55 51 49 47 45 43 41 39 36 33 31 30 26 22 23 20 18 19 22 25 24 17 14 11 8 11 14 18 14 12 12 12 11 10 12 10 7 5 4 6 6 7 8 10 12 14 17 20 22 23
65 67 65 61 58 55 53 50 48 45 43 40 38 35 33 31 25 26 25 21 19 20 23 25 21 14 9 5 7 10 14 10 5 8 12 12 13 14 13 13 10 8 6 6 8 10 11 11 12 14 16 18 20 21
64 63 64 66 63 58 55 52 50 48 45 43 40 38 35 29 29 28 26 23 19 21 22 25 19 13 10 10 12 10 10 9 7 7 11 10 12 13 13 12 11 10 9 10 11 12 13 13 12 14 15 16 16 16
62 62 60 60 62 62 59 56 52 50 47 44 41 38 34 33 32 31 28 24 22 22 21 24 17 15 14 17 14 13 11 9 7 9 8 8 11 13 13 13 14 14 14 13 14 13 13 13 14 15 17 17 18 18
55 56 57 56 56 56 58 58 54 51 48 44 40 39 37 38 38 35 31 26 24 21 22 26 20 17 19 21 19 17 15 13 12 14 13 9 14 13 13 13 13 14 13 13 13 13 14 15 17 19 20 20 21 21
49 50 51 52 51 50 47 45 45 48 46 44 42 41 39 42 40 32 26 23 21 18 28 23 19 18 22 24 21 19 17 15 15 16 15 13 18 14 13 14 14 14 14 13 13 15 18 20 22 24 25 25 24 23
46 49 49 48 47 46 43 41 42 43 45 45 43 42 40 40 33 25 26 22 19 27 23 19 17 18 23 23 22 17 16 16 17 17 17 20 17 14 13 13 15 16 16 16 17 19 20 21 21 21 22 22 22 24
42 43 44 46 45 44 43 40 40 40 40 39 37 37 35 34 30 31 26 24 19 16 11 12 14 20 25 23 20 18 17 15 16 16 19 19 18 17 15 16 17 18 19 20 21 22 23 25 27 27 27 27 27 28
38 39 40 43 43 42 42 40 39 39 39 40 38 32 30 32 27 25 26 23 15 15 12 12 13 21 23 21 19 18 18 15 16 21 21 17 16 16 18 18 18 19 21 23 25 27 27 28 28 29 31 32 32 32
36 36 39 39 37 37 39 40 40 42 43 41 36 31 22 25 26 22 20 17 12 13 15 15 18 19 19 20 21 19 19 21 22 20 20 18 18 19 20 20 21 23 26 27 27 26 27 29 31 31 34 36 36 35
35 36 37 40 42 44 44 43 43 42 36 30 28 27 26 27 24 20 13 11 13 16 17 17 18 22 21 18 18 20 20 20 20 20 20 20 21 21 21 22 24 26 27 30 31 29 31 32 33 35 32 27 26 28
34 34 38 41 44 45 43 40 38 36 34 29 27 26 24 21 19 18 15 14 14 15 15 17 22 25 23 20 20 22 23 23 23 23 23 23 23 24 24 27 29 31 33 34 34 35 34 34 34 29 27 25 24 24
36 39 40 40 40 39 40 41 39 34 30 24 24 22 20 19 19 18 15 11 12 15 14 14 16 18 19 20 22 24 25 27 27 25 24 26 27 28 30 32 35 37 37 37 37 38 36 34 29 27 25 25 24 25
41 40 40 39 38 37 37 38 33 28 25 21 18 15 16 18 17 13 9 10 12 13 14 13 14 15 19 21 23 23 23 23 24 26 27 28 29 32 35 37 39 39 42 42 40 37 33 27 24 24 23 22 22 25
33 32 30 30 30 29 27 26 24 20 16 14 14 14 14 14 10 10 10 10 9 8 8 10 12 16 18 20 21 21 23 25 28 29 31 33 35 36 37 38 40 35 30 28 24 21 20 21 23 24 26 26 26 26
29 28 28 27 26 25 22 21 20 17 15 14 12 10 10 11 13 12 9 7 8 9 10 11 13 14 16 19 21 24 27 29 30 32 34 36 37 38 39 36 32 31 29 28 27 27 26 27 28 29 30 31 31 30
21 21 21 21 21 17 14 12 10 11 13 14 13 12 11 12 12 10 8 10 12 12 13 14 15 17 19 21 24 27 29 31 33 35 37 38 36 33 32 32 33 34 34 35 35 35 35 35 36 36 36 37 36 35
18 17 15 14 13 14 12 12 13 14 13 13 14 13 12 13 13 13 11 11 13 13 14 14 16 19 22 25 28 30 32 34 35 33 33 34 35 36 38 39 40 40 41 41 41 41 41 41 41 41 41 41 40 39
15 12 11 12 11 12 12 10 10 9 10 11 11 10 11 13 14 10 10 13 14 15 17 19 21 23 25 26 27 27 29 31 33 36 38 40 41 42 41 41 40 39 39 39 38 38 38 39 39 39 39 38 38 38
17 13 11 12 12 12 12 11 11 12 11 11 11 12 13 13 12 11 13 15 17 17 17 17 19 22 24 27 29 33 36 38 39 39 37 37 36 36 37 37 38 38 38 38 39 40 40 41 42 42 42 42 42 42
15 16 16 17 16 15 14 14 13 12 11 11 11 11 12 11 13 13 13 13 14 16 18 20 23 26 30 33 32 31 30 30 31 32 33 34 35 37 38 38 38 39 40 41 42 43 43 43 43 42 42 42 42 42
20 21 22 20 19 17 15 14 12 12 13 13 13 14 13 12 12 12 13 15 16 18 22 25 27 26 25 25 26 27 29 30 32 34 36 37 38 39 40 41 42 41 41 39 38 36 34 32 32 32 32 32 33 33
23 23 22 21 19 17 15 14 14 14 14 13 13 12 11 11 12 13 14 16 19 23 25 24 23 23 24 25 26 27 29 31 34 36 37 39 39 40 40 38 36 33 31 29 27 26 26 26 25 25 25 25 25 25
18 18 18 17 17 16 16 15 13 12 11 10 10 10 10 11 12 14 15 19 22 24 22 21 21 22 23 25 27 30 33 36 37 38 39 39 38 36 32 29 27 26 26 26 26 26 26 26 26 25 25 24 24 24
19 19 18 17 15 14 13 12 11 10 9 8 8 9 10 11 13 15 18 21 21 20 19 20 21 22 25 27 31 34 38 39 39 40 39 35 32 29 26 25 24 24 24 23 23 24 24 25 25 25 25 24 24 24
23 21 19 16 15 13 11 9 8 7 6 5 6 8 10 13 15 17 19 20 20 19 18 19 21 24 28 32 35 39 42 42 40 36 32 29 26 25 24 23 23 23 22 22 21 21 21 20 20 20 20 20 21 21

GFSWCAN_500_spd_126.txt.gz
Wind_Speed
37 36 33 32 34 33 35 39 46 43 38 35 31 29 25 21 17 14 11 10 8 8 9 12 17 21 23 25 20 20 16 8 5 10 6 5 3 5 6 3 8 10 5 3 6 8 6 1 7 7 10 8 11 10
42 41 38 35 36 37 42 49 50 44 40 36 32 29 25 21 17 14 11 10 7 8 9 13 17 20 23 25 17 16 15 4 6 7 6 7 4 4 7 3 4 8 8 7 6 8 8 8 4 10 5 5 5 5
39 43 43 40 39 44 49 52 50 43 41 35 33 30 26 22 18 14 12 11 8 8 9 13 16 20 22 24 15 13 12 7 9 10 9 9 6 4 6 7 8 3 0 4 3 2 5 10 8 8 9 11 6 3
36 38 43 45 43 50 53 51 48 47 39 37 35 31 27 23 18 15 14 12 10 9 10 13 17 20 22 23 15 14 10 13 14 14 12 13 9 6 7 9 11 6 6 5 3 2 3 5 6 8 6 6 7 4
37 36 37 44 46 47 47 47 46 41 40 37 34 31 28 24 20 17 15 13 11 11 12 13 17 21 22 22 15 16 14 15 17 17 14 13 12 9 8 10 9 7 8 7 5 5 6 5 7 10 10 6 9 12
43 39 39 39 40 43 47 51 47 46 42 38 35 32 30 26 22 19 17 13 13 11 13 15 18 21 23 22 18 20 17 17 18 18 15 17 15 11 11 11 10 7 6 6 6 4 8 5 5 6 10 12 17 18
49 45 42 42 44 42 40 41 43 44 42 39 36 35 32 27 24 21 17 15 14 12 14 16 19 22 23 21 19 19 18 17 16 17 16 18 18 15 14 14 11 8 6 6 7 7 8 7 9 11 13 16 19 22
54 51 48 46 43 45 44 42 42 41 42 40 38 36 33 29 25 22 19 17 15 14 14 16 20 21 22 19 17 12 12 10 11 12 16 15 17 17 16 14 12 9 7 7 7 8 10 9 14 15 16 18 20 22
60 56 55 51 46 45 45 45 45 43 43 41 39 37 33 28 27 24 21 20 16 15 15 17 19 20 20 13 7 11 6 6 7 8 10 11 14 15 17 16 14 10 9 9 9 9 11 12 13 15 17 18 20 21
64 63 58 55 49 46 44 42 43 43 42 42 38 35 31 30 27 25 24 21 18 17 15 18 18 19 17 10 7 6 8 7 4 6 8 10 11 11 14 15 13 12 11 11 12 13 15 17 18 19 20 20 21 22
62 64 64 58 54 51 49 47 45 43 40 38 37 37 34 32 30 29 26 23 20 18 17 20 20 22 18 13 11 10 10 10 7 7 7 8 8 14 16 15 14 14 14 14 15 16 17 18 19 20 20 21 22 24
60 61 60 61 57 54 53 51 46 42 40 39 40 37 35 33 33 30 27 24 22 20 20 23 24 25 20 16 18 18 17 14 11 11 12 11 12 16 16 16 16 17 17 17 18 18 18 18 19 21 22 24 26 27
61 59 58 57 57 55 52 50 48 46 43 42 41 39 37 36 35 31 27 24 23 23 23 25 27 25 21 19 22 24 23 18 13 14 15 13 18 21 18 17 18 19 18 19 19 20 20 21 22 23 25 26 26 26
56 59 56 56 56 54 52 52 46 43 43 42 40 39 37 36 34 29 26 25 24 24 21 25 25 22 21 20 21 23 24 20 18 15 16 19 21 23 22 19 19 20 20 22 23 23 24 26 26 27 29 30 31 31
48 54 55 55 54 53 50 48 46 43 42 41 39 38 35 34 31 28 26 24 26 22 19 17 16 18 19 20 21 22 20 20 15 12 15 18 19 21 22 21 19 20 22 23 25 26 28 30 31 32 32 33 33 33
47 51 49 50 49 49 48 46 43 42 43 44 43 40 38 32 32 29 27 29 25 21 17 15 15 15 16 17 15 18 19 14 14 16 18 18 19 19 20 20 20 22 23 25 25 27 29 30 31 31 31 33 35 35
47 47 50 55 51 45 44 43 42 41 41 39 35 33 31 32 27 29 23 22 25 22 16 18 17 14 12 14 14 17 14 16 22 21 22 21 20 20 20 21 22 24 24 24 27 28 31 33 34 33 35 35 35 35
48 50 47 46 48 45 39 38 39 38 35 33 33 28 23 22 27 26 20 17 21 17 18 20 19 13 16 16 16 15 19 23 24 22 21 20 19 20 21 23 25 27 27 28 31 34 36 37 36 37 36 35 35 30
40 42 44 43 43 44 42 39 38 37 34 37 38 30 23 16 20 23 22 15 14 16 17 20 21 20 19 22 23 23 23 24 23 23 23 22 23 24 26 27 29 29 31 34 36 39 40 40 40 39 38 35 31 27
36 38 39 40 39 39 37 35 31 32 33 30 25 24 21 18 19 18 18 17 16 17 19 17 15 16 18 23 27 25 25 26 25 25 25 25 27 28 29 31 31 33 35 37 39 41 42 39 39 36 32 29 25 24
37 39 36 40 38 33 32 35 36 34 28 22 17 16 16 17 19 19 20 19 18 15 13 14 16 16 18 22 24 24 25 25 26 27 28 26 27 30 32 33 35 37 39 40 41 38 34 33 29 24 22 22 24 25
34 36 37 35 35 37 36 36 35 31 27 28 26 22 17 21 22 20 18 15 12 10 12 12 15 18 20 22 23 23 23 24 24 26 29 31 33 34 35 37 39 40 41 40 36 35 34 32 30 29 29 28 29 29
37 38 37 37 38 39 37 37 30 25 22 22 20 19 18 18 19 18 14 10 10 10 8 10 12 13 16 17 18 19 21 23 26 29 32 33 35 37 39 41 41 38 36 35 36 36 37 37 37 37 36 36 36 36
29 27 27 29 32 34 30 26 20 16 17 18 17 15 13 14 15 12 8 9 11 12 12 13 13 14 15 16 18 20 23 26 29 32 35 37 39 40 39 39 39 40 41 42 43 43 44 44 43 43 42 41 41 41
25 26 26 25 23 21 19 17 14 13 14 16 16 15 14 15 13 11 8 10 13 12 13 13 12 13 14 17 21 24 27 30 32 34 35 36 37 39 42 43 45 47 46 45 44 43 42 42 41 41 41 41 41 41
18 17 17 16 18 17 18 15 12 10 11 13 13 13 14 13 11 8 7 11 12 12 13 14 16 17 18 20 22 24 27 29 33 36 39 42 43 44 43 42 40 40 41 42 42 42 42 42 42 42 42 41 41 42
13 13 11 10 10 10 10 10 10 11 11 11 11 12 11 10 8 6 9 10 12 14 14 13 14 16 19 22 25 28 33 36 37 37 36 36 37 38 39 40 41 42 42 43 43 43 43 43 43 44 44 45 45 45
7 7 8 8 10 11 11 12 11 10 9 9 9 9 9 7 7 9 12 13 12 12 14 16 18 21 24 28 30 30 30 30 30 31 33 34 36 38 40 41 43 44 44 44 44 43 43 42 41 40 39 38 37 36
11 12 13 13 13 12 11 11 9 9 10 10 10 10 10 11 12 13 12 11 13 14 16 19 23 25 25 25 25 25 26 27 30 32 35 37 40 41 42 43 44 44 43 41 40 38 35 33 31 30 29 28 28 28
17 19 18 17 18 16 15 15 13 13 13 12 12 12 13 13 12 11 12 12 14 16 19 22 23 23 22 23 23 24 26 29 33 36 39 42 43 44 45 43 40 37 34 32 30 30 29 29 29 28 28 28 29 29
22 24 23 21 20 20 19 17 15 15 15 14 15 14 12 11 11 11 12 14 15 17 21 22 22 21 21 22 23 25 28 32 37 41 45 46 47 44 39 36 33 30 28 27 26 26 26 26 26 26 26 27 27 27
23 23 22 21 20 20 19 18 18 17 16 14 13 11 10 10 11 13 13 14 15 18 21 22 21 21 22 23 24 27 32 36 41 47 49 47 42 37 33 31 29 27 25 25 24 24 23 23 23 23 23 23 23 23
24 23 22 22 21 21 20 19 17 15 14 12 11 10 9 10 11 12 13 15 17 19 21 22 23 23 24 24 26 29 34 39 43 49 48 43 37 32 29 27 25 23 22 22 22 22 22 22 23 23 23 24 24 25

GFSWCAN_500_spd_129.txt.gz
Wind_Speed
35 34 36 36 36 33 32 31 30 31 35 43 39 38 33 29 26 22 17 14 12 9 7 4 5 9 12 15 17 18 17 18 12 17 9 6 5 4 7 4 7 9 6 5 7 7 4 8 10 3 8 11 5 9
34 33 34 34 36 36 34 33 32 35 43 45 41 37 31 29 27 21 17 13 10 9 6 5 5 9 13 14 16 18 13 14 6 16 10 7 5 3 6 8 9 12 5 5 9 10 8 10 11 11 12 5 1 6
36 32 31 32 34 34 33 34 35 40 49 45 41 36 33 30 26 22 18 12 10 9 7 5 6 10 13 15 16 17 12 10 6 11 11 8 7 4 5 6 8 10 7 6 8 10 10 8 10 8 9 11 9 3
35 34 34 32 32 34 34 36 42 53 49 45 41 37 34 30 26 22 17 12 10 9 8 6 7 11 14 15 16 16 11 13 9 14 13 10 10 8 8 8 11 9 7 9 8 8 10 8 7 8 8 5 8 9
34 34 33 32 33 35 36 40 49 52 48 44 42 38 34 31 27 22 17 14 11 10 8 6 8 10 14 15 17 18 14 14 15 13 17 14 11 10 9 9 13 10 8 8 7 6 8 9 6 7 7 8 8 13
34 32 32 34 36 39 41 44 53 54 50 45 43 40 36 31 27 23 19 14 13 11 9 7 8 11 14 15 18 20 18 18 15 16 16 17 13 13 12 9 13 14 12 9 8 7 7 9 9 10 13 15 16 17
39 34 32 35 40 40 47 49 52 52 49 48 44 39 35 33 29 24 19 16 14 11 10 9 8 11 15 17 20 21 19 16 13 12 14 17 13 15 13 12 14 13 11 10 8 7 7 10 9 11 14 15 17 18
43 37 35 34 37 40 41 50 56 57 51 47 43 40 37 32 29 26 20 17 14 13 11 10 8 12 14 16 19 19 15 10 3 4 9 12 14 16 12 15 15 16 11 9 9 8 8 9 12 14 15 17 18 20
47 42 38 36 35 38 44 45 47 47 49 46 43 40 35 32 29 26 21 19 16 14 11 11 9 13 14 17 17 17 10 3 3 2 4 8 11 11 13 15 19 17 12 10 9 9 9 11 12 14 16 19 21 22
50 47 43 40 38 36 38 42 45 51 49 42 40 37 35 33 29 27 24 22 18 14 11 13 10 14 15 17 16 13 7 6 3 2 4 5 7 9 12 13 15 15 13 12 12 12 14 15 17 19 19 19 20 22
54 53 51 47 45 41 40 40 42 42 42 42 40 36 36 33 32 29 25 21 18 14 12 15 14 15 16 18 15 12 9 8 7 5 5 3 6 10 13 13 15 16 17 16 15 17 18 19 20 20 20 21 23 25
59 57 58 54 51 46 40 40 39 38 35 35 36 37 35 33 32 28 24 21 17 14 13 16 16 19 21 21 17 15 16 15 12 9 9 11 11 14 15 15 17 16 17 17 17 18 18 19 20 21 23 24 26 28
60 61 60 61 55 49 42 39 40 40 42 43 41 39 37 35 31 26 22 19 16 16 16 17 21 24 25 24 20 18 19 22 19 13 13 13 16 17 18 18 20 18 19 20 20 23 22 22 24 26 28 29 31 33
57 60 61 59 59 53 44 41 40 39 39 39 37 36 33 31 28 24 22 21 19 18 19 20 22 24 24 22 20 19 20 21 24 19 15 17 20 21 20 20 21 21 21 21 20 23 25 26 27 29 31 34 35 35
58 56 57 60 57 52 46 45 45 41 38 36 34 33 30 30 28 26 24 21 20 20 19 22 21 21 18 19 19 20 19 19 19 17 18 17 18 18 19 20 21 22 22 22 23 26 27 30 30 32 32 34 35 33
59 59 53 51 49 48 47 42 40 42 43 41 38 35 33 31 29 27 25 22 21 20 20 18 18 17 17 18 18 15 11 11 12 13 17 17 18 17 17 19 20 21 22 24 25 28 30 31 31 32 34 36 36 36
54 57 53 50 49 47 45 41 41 39 36 36 34 32 31 29 28 28 28 25 23 23 21 17 18 17 16 16 10 11 11 13 13 17 21 23 22 21 19 18 18 20 22 26 29 31 32 33 35 37 39 39 37 36
48 54 56 57 53 46 47 46 43 40 38 36 35 34 34 33 30 28 24 23 23 20 19 22 22 20 20 15 13 13 13 18 20 22 24 23 23 20 19 19 20 23 26 29 31 31 32 35 37 39 40 40 39 37
48 59 57 54 52 47 43 41 39 35 34 33 33 30 28 25 22 22 25 21 19 15 20 23 22 20 21 19 18 23 25 18 21 24 23 22 23 23 23 25 25 26 27 30 32 33 35 37 39 39 37 35 36 31
49 54 53 43 42 38 39 40 36 34 32 28 27 28 24 18 16 19 21 21 18 19 21 19 19 20 20 21 22 25 32 32 30 28 26 25 26 27 27 29 30 31 32 33 34 36 38 39 40 36 33 33 31 29
53 50 44 38 37 37 35 35 33 29 29 31 34 31 25 20 14 15 18 19 19 16 13 16 18 19 20 22 21 23 29 33 32 28 26 25 26 27 29 31 33 35 36 37 39 40 41 38 35 34 34 33 33 33
48 48 49 51 47 41 33 27 24 26 29 29 27 23 19 14 14 16 19 18 15 14 17 19 17 16 16 19 21 21 23 25 26 27 27 28 28 30 32 35 36 38 40 41 41 40 39 38 39 39 39 39 39 39
39 40 38 38 30 25 28 28 30 32 32 27 21 18 20 20 21 20 19 16 16 17 16 15 13 13 15 16 16 18 20 21 24 25 27 29 32 34 37 39 41 42 41 41 41 42 43 44 45 45 45 44 44 43
31 31 30 30 33 35 38 37 34 31 25 25 25 22 20 21 22 20 16 16 18 16 15 15 14 14 15 15 17 18 18 20 22 25 28 31 35 37 38 40 41 43 45 46 46 46 45 44 43 43 42 42 41 41
29 28 30 34 38 37 33 27 22 22 21 22 23 22 20 20 19 17 16 16 15 14 15 14 14 13 12 14 16 18 20 22 26 29 30 33 36 39 42 44 44 44 42 42 42 43 43 43 43 43 43 43 42 42
26 27 30 31 30 26 21 17 17 14 13 16 19 18 18 18 16 13 11 14 15 14 14 14 14 15 16 18 18 18 20 23 27 31 35 38 38 38 38 38 39 41 42 43 43 44 45 46 46 45 45 45 44 44
24 24 24 23 20 18 16 16 16 16 17 18 18 19 19 15 11 10 14 15 15 15 14 14 13 13 14 16 18 22 25 28 29 29 30 31 32 34 36 39 41 43 45 46 47 48 47 47 46 45 44 43 41 40
20 20 18 18 17 16 17 17 16 14 13 13 14 13 13 12 11 14 14 14 13 13 11 11 13 14 17 20 22 23 23 24 25 25 27 30 33 36 40 44 46 48 48 47 46 44 42 41 39 37 35 34 32 31
16 16 16 17 16 16 14 13 11 10 12 13 13 14 13 12 13 13 13 12 10 10 11 12 14 17 20 21 22 23 23 24 25 26 29 33 38 42 47 51 53 49 44 40 38 36 34 32 30 30 29 29 29 29
13 15 16 15 14 14 13 13 13 14 13 13 14 14 13 13 13 12 10 10 10 10 11 13 16 18 21 22 23 23 24 25 26 28 32 36 41 48 53 54 48 42 38 35 32 30 28 27 27 27 27 26 26 27
16 18 18 18 16 15 16 16 16 15 14 13 14 14 15 13 12 11 10 10 10 11 12 14 16 20 22 23 24 25 26 27 28 31 34 40 45 51 54 49 41 36 33 31 29 27 25 25 24 24 24 24 24 24
22 23 23 22 20 21 19 18 17 17 16 16 15 15 13 13 12 11 10 11 12 13 14 15 17 19 22 25 27 28 28 30 31 34 37 42 47 52 51 43 37 32 29 27 25 24 23 23 23 23 23 23 24 25
26 25 24 24 22 20 19 19 18 18 18 16 16 15 14 13 12 11 11 11 13 14 15 16 18 20 23 25 27 28 29 31 33 35 38 42 47 50 46 39 34 30 28 26 24 23 22 22 22 22 22 23 23 24

GFSWCAN_500_spd_132.txt.gz
Wind_Speed
37 37 38 37 33 31 30 27 25 26 25 28 38 43 42 37 35 30 28 26 23 19 18 15 11 7 4 5 6 7 10 10 11 4 16 10 7 4 4 4 7 7 11 8 9 11 5 6 7 8 10 7 7 6
35 36 35 33 35 34 31 29 27 27 29 33 40 45 38 38 33 31 27 25 22 19 17 13 10 6 5 6 7 8 10 9 8 3 14 13 7 4 3 6 8 9 11 8 8 9 7 7 9 8 11 7 4 4
35 36 36 38 39 36 33 32 34 34 35 41 45 42 41 37 34 29 26 23 19 18 15 13 11 6 6 6 8 8 9 8 6 4 14 12 10 7 4 6 9 10 10 10 13 12 8 9 10 7 9 6 4 3
35 34 34 35 37 38 37 36 37 38 38 46 47 44 41 37 34 30 27 23 19 16 15 12 10 7 6 8 8 9 10 9 8 7 13 14 14 12 9 8 10 12 11 10 11 8 8 9 8 10 8 8 5 8
38 32 29 32 36 38 38 38 37 39 42 49 48 44 41 35 34 30 26 22 19 17 13 12 8 6 6 8 10 11 12 13 12 11 13 18 18 14 12 9 9 11 12 10 10 8 9 9 7 8 10 12 12 14
35 32 30 31 33 38 38 37 37 42 45 51 47 45 40 38 34 31 26 21 18 14 14 12 9 7 7 10 12 12 15 18 15 15 18 19 21 18 15 10 9 12 14 11 9 7 6 5 6 9 9 11 12 14
34 32 29 29 30 37 36 36 35 40 46 52 48 45 42 38 35 31 25 21 18 14 14 12 9 9 8 11 12 13 18 20 19 13 13 17 18 17 17 13 10 12 16 14 10 8 7 7 8 9 11 13 14 16
36 30 28 28 29 33 33 36 37 37 51 55 49 46 42 38 34 30 26 22 17 14 13 12 10 10 9 11 12 13 18 19 13 6 3 8 13 14 17 14 13 14 17 15 10 8 8 8 9 12 14 16 17 18
39 31 28 26 27 30 33 34 36 43 51 52 48 46 42 37 33 30 27 22 19 15 14 12 11 11 10 11 11 13 16 14 6 1 2 4 8 11 13 13 14 17 18 13 11 10 10 11 12 13 15 16 17 18
42 36 31 29 27 30 31 35 36 38 50 49 48 45 43 38 34 32 28 24 18 15 15 14 13 13 11 12 11 13 13 9 3 2 4 4 6 6 9 12 13 13 16 15 13 13 13 13 14 16 17 17 17 20
45 41 35 34 31 31 33 33 34 39 45 50 48 45 44 39 35 31 28 24 20 17 15 15 16 14 13 14 16 15 12 9 10 9 8 7 7 7 9 11 11 13 15 16 15 16 16 16 17 18 18 19 21 24
49 43 41 38 35 32 30 31 34 39 46 48 45 44 43 39 35 33 28 24 22 18 17 18 18 17 16 16 19 17 14 12 13 14 16 11 6 10 13 14 13 14 15 15 16 17 18 17 18 19 21 23 25 28
48 49 43 41 37 33 29 25 34 41 43 46 45 43 39 39 37 32 28 24 22 20 20 19 20 20 19 21 21 19 16 15 16 19 21 14 13 14 17 18 18 18 18 18 19 20 20 19 21 23 25 27 29 32
50 51 44 43 44 40 37 33 28 29 38 42 41 39 37 36 34 29 29 27 23 21 20 21 22 21 23 25 23 19 17 18 20 20 19 21 20 19 20 23 22 21 20 20 21 21 22 22 24 26 28 30 33 34
55 56 51 45 45 46 42 37 31 30 32 32 36 36 37 34 31 29 26 24 21 21 23 22 22 22 24 24 20 17 17 20 17 12 15 18 20 22 20 19 21 22 23 23 23 23 23 26 28 29 32 34 36 39
63 56 58 51 49 46 44 40 34 31 32 32 33 33 32 31 29 28 26 23 22 23 23 23 21 21 22 21 15 17 19 12 9 9 8 15 15 18 18 20 22 20 20 21 21 22 25 28 29 32 34 35 37 40
63 60 53 55 53 44 44 41 37 34 33 33 32 31 30 29 27 25 24 24 24 24 24 24 24 22 20 18 16 16 12 12 12 12 12 19 21 21 23 24 22 20 20 20 22 25 27 28 31 33 34 35 36 37
54 57 61 56 51 45 39 40 39 37 35 33 31 30 28 27 27 27 27 26 25 25 26 24 25 23 18 18 19 17 16 13 13 19 20 21 22 25 26 25 23 21 22 24 25 26 29 31 32 34 34 36 37 37
55 52 51 55 54 48 41 43 41 37 32 29 29 28 27 27 27 27 28 30 29 26 24 23 23 20 20 21 22 21 20 21 21 20 23 25 26 27 25 25 25 25 26 26 28 31 33 34 35 35 37 38 38 35
52 51 44 40 45 50 44 43 40 39 35 31 31 31 31 31 31 32 30 28 25 22 21 19 19 19 19 21 23 24 24 24 25 32 34 31 29 29 29 30 30 30 31 32 34 35 37 38 39 40 40 39 39 37
53 50 51 47 48 54 45 39 33 32 33 33 32 32 31 26 20 17 18 20 21 21 18 14 15 17 19 21 24 26 26 27 28 27 29 35 36 33 33 33 34 35 36 37 39 40 42 43 43 42 41 41 42 42
62 55 51 51 44 40 34 32 30 28 27 28 28 27 25 21 20 17 16 17 20 17 16 16 16 17 20 23 23 23 23 23 22 21 21 23 26 30 32 33 34 36 39 41 42 43 43 44 45 45 46 46 46 46
54 49 47 46 40 35 32 28 22 22 21 25 26 25 24 22 20 19 18 18 18 18 17 17 17 19 20 19 18 18 18 18 19 20 21 23 26 28 31 35 38 40 41 44 46 46 46 46 44 44 43 43 42 42
42 39 36 36 37 33 25 22 23 23 23 24 27 25 21 19 20 18 15 15 16 16 17 19 20 19 19 19 19 19 19 19 19 20 22 25 29 32 35 38 41 43 42 42 42 43 44 44 44 45 45 45 45 45
42 43 44 40 31 23 21 23 25 27 27 25 24 22 21 18 16 16 15 17 17 19 20 19 18 18 19 20 19 18 19 21 22 23 23 26 30 34 36 36 37 37 38 40 42 44 47 48 49 49 49 48 48 47
37 34 33 27 26 29 33 32 27 25 25 25 23 21 20 19 17 14 16 20 21 21 20 19 18 16 17 18 19 19 18 20 21 25 28 29 29 29 29 31 33 36 40 44 48 51 51 50 48 48 46 44 42 41
31 33 35 37 36 28 24 23 22 19 18 20 23 23 22 19 17 16 19 20 20 21 20 17 15 16 16 14 14 17 20 23 23 24 24 25 26 28 30 33 37 42 47 54 58 54 47 42 39 37 36 35 33 32
33 32 28 24 21 19 19 20 18 18 18 18 19 20 21 19 19 19 18 19 20 19 17 16 16 13 13 14 16 18 18 19 21 24 25 26 28 31 34 37 42 47 54 60 55 47 41 37 34 32 30 29 28 27
24 24 23 22 20 19 18 17 17 16 15 16 17 18 16 17 17 19 19 18 17 17 17 14 11 11 12 14 15 16 18 21 23 25 28 30 32 35 39 42 46 51 57 55 46 39 35 32 30 27 26 26 26 25
19 20 20 20 20 18 19 19 19 18 18 17 16 16 16 17 18 18 17 18 17 14 13 12 11 11 12 13 14 16 19 22 25 28 31 33 36 39 42 44 47 52 55 47 40 35 32 30 28 26 24 24 24 24
19 21 21 21 21 20 22 22 21 21 19 18 18 19 20 20 18 18 18 16 14 13 13 13 12 13 13 13 15 18 21 24 26 28 31 34 37 39 40 43 47 52 50 42 36 32 29 28 26 25 24 24 23 23
21 21 20 20 20 22 24 24 23 22 22 21 20 21 21 20 20 18 16 16 15 14 13 13 13 15 15 16 18 20 23 26 28 30 32 34 36 37 40 43 47 49 45 37 32 29 27 26 25 24 24 24 24 24
25 26 27 28 28 27 25 26 24 23 22 22 23 23 21 20 19 18 17 16 15 14 13 14 15 16 17 19 22 24 26 28 31 33 35 37 38 39 41 44 47 46 39 33 30 28 26 24 23 23 23 23 23 23

GFSWCAN_500_spd_135.txt.gz
Wind_Speed
42 39 37 38 38 37 36 33 29 26 26 25 24 23 25 32 42 44 41 33 29 30 29 24 21 19 16 13 10 10 10 10 11 11 12 14 15 11 8 7 7 8 11 11 8 9 12 13 14 10 10 9 7 6
37 40 40 39 37 37 35 32 30 27 24 25 26 33 38 46 45 39 33 35 33 30 25 22 21 18 13 10 9 8 9 10 11 11 9 14 18 12 10 8 5 6 10 12 9 9 12 11 8 6 7 8 5 5
33 36 37 35 34 34 32 31 29 25 24 27 34 40 43 41 40 40 36 32 30 27 24 21 19 16 13 10 9 8 9 10 11 12 10 14 16 13 11 8 5 8 12 13 11 11 7 5 5 7 6 7 9 4
33 34 34 33 33 33 33 32 32 28 28 34 41 42 41 42 41 35 32 31 27 25 23 22 19 16 13 10 9 9 9 10 12 13 13 14 19 16 16 12 8 9 12 13 12 10 6 6 6 4 4 7 8 7
35 34 35 35 33 34 34 34 35 34 34 36 42 46 43 41 36 34 32 30 28 26 23 21 18 16 13 9 9 11 11 12 15 16 17 19 22 23 20 17 12 7 9 12 11 9 7 7 5 6 8 9 10 10
35 35 35 37 38 37 39 38 35 37 37 42 49 46 42 40 37 36 33 30 27 23 19 20 17 15 13 11 11 12 13 13 17 19 20 22 25 25 24 19 15 9 8 12 12 9 9 8 8 9 9 10 12 12
35 33 33 32 37 39 39 40 39 37 43 49 49 45 44 40 37 35 31 26 24 21 19 18 15 13 12 11 11 13 13 15 19 18 18 14 16 20 23 21 18 13 12 13 17 11 10 9 11 10 10 12 13 15
36 31 30 35 38 40 42 42 42 39 45 50 51 47 44 39 36 33 31 27 24 21 19 17 15 13 13 12 12 13 12 16 18 16 11 6 7 13 18 22 19 15 14 14 16 13 11 10 12 14 14 15 16 18
34 31 30 31 35 40 43 45 43 40 39 49 50 48 43 39 36 33 30 26 24 22 20 17 15 15 13 13 13 13 13 15 16 11 6 4 5 10 15 19 18 16 15 13 13 14 12 12 13 14 16 16 16 17
35 28 28 31 35 40 43 43 40 38 40 51 52 50 44 40 37 34 30 27 24 24 20 17 16 16 15 14 13 13 14 15 13 9 6 6 7 9 10 15 15 15 15 14 13 15 14 13 13 14 16 18 18 19
37 28 26 28 32 38 40 39 39 39 35 50 50 49 44 41 36 34 31 30 26 24 19 18 17 17 16 17 15 15 16 15 13 12 9 8 11 10 11 12 13 15 15 14 14 14 14 14 15 13 13 16 17 20
39 33 26 26 29 31 31 33 35 34 33 41 45 45 45 42 38 35 33 30 27 24 22 20 20 18 18 18 18 18 19 19 14 14 13 13 17 10 11 14 14 15 15 16 15 15 17 18 18 19 18 20 22 23
40 33 29 27 27 26 28 30 34 37 36 39 46 47 46 44 43 41 35 31 29 26 25 23 21 20 20 20 20 20 21 22 19 17 16 18 21 16 15 16 17 19 20 21 20 20 20 20 21 22 23 23 25 26
43 37 33 31 31 27 25 24 25 28 34 34 43 46 43 43 44 42 38 33 30 28 27 24 23 22 21 22 22 22 24 23 20 18 20 22 21 24 20 18 19 22 24 25 25 25 25 25 25 26 26 26 28 29
47 41 40 37 34 30 25 23 24 26 29 32 36 39 40 38 37 36 34 32 30 30 26 24 24 23 23 23 23 24 23 19 18 21 20 17 18 20 20 20 21 20 20 23 26 27 27 27 27 27 26 27 29 31
50 44 44 40 37 35 30 25 22 22 26 32 33 35 36 36 35 34 33 31 28 27 25 25 24 24 25 25 23 23 22 19 20 17 11 5 10 12 13 15 19 21 22 24 25 26 27 26 26 28 27 30 32 33
48 46 44 42 42 40 35 31 27 22 22 25 26 30 32 33 32 32 30 28 27 26 25 25 25 26 26 27 25 22 19 18 18 16 16 16 15 15 18 22 22 23 25 25 25 25 25 25 26 28 29 32 33 35
42 45 48 48 47 43 39 36 32 27 22 22 24 25 26 28 29 28 27 26 26 26 26 26 28 27 28 26 21 20 17 17 19 20 19 20 22 23 24 24 25 27 27 27 28 27 27 28 30 31 33 35 37 38
51 46 44 48 43 41 41 40 36 30 25 24 24 24 25 25 25 25 25 26 26 26 26 26 29 30 27 22 19 18 19 20 21 22 24 26 29 29 29 30 30 29 30 31 33 33 33 34 35 37 39 40 41 42
62 57 48 43 40 40 41 38 35 31 30 27 26 26 25 25 25 25 25 25 26 25 27 30 28 24 21 16 16 19 20 23 24 24 25 26 28 31 35 36 34 33 34 35 37 37 38 40 42 44 45 45 45 44
70 59 50 43 43 40 39 36 35 31 26 26 25 24 22 23 24 25 25 28 29 30 30 24 23 19 16 17 18 20 21 23 25 25 26 27 27 27 26 27 30 34 36 38 39 40 42 44 46 46 47 47 46 46
58 60 53 48 45 40 33 35 34 31 30 29 29 30 29 30 29 30 30 29 28 26 23 20 18 17 17 16 18 20 22 22 21 20 20 20 21 21 22 25 28 32 34 37 40 42 44 44 43 43 43 44 45 45
52 49 49 48 46 44 43 40 36 35 30 28 29 30 31 30 26 25 24 20 18 18 18 18 17 16 15 17 18 20 20 20 20 20 20 20 20 21 23 26 29 32 36 39 39 38 39 40 42 44 46 48 49 50
44 43 40 37 38 42 42 41 36 33 26 25 27 28 26 24 25 25 19 19 21 21 19 18 17 15 17 18 19 20 21 22 21 20 21 22 23 25 27 30 33 34 35 35 37 39 42 45 47 52 56 54 52 50
41 43 48 47 41 36 36 34 26 24 23 23 22 21 23 26 24 21 18 17 19 18 17 16 16 17 18 19 20 19 19 20 21 21 21 22 27 29 30 30 32 33 35 37 40 44 48 51 57 61 54 47 43 41
40 41 46 42 33 29 23 24 23 19 19 20 22 25 25 24 21 16 10 14 16 15 15 16 17 16 17 18 18 19 19 17 18 21 24 25 25 27 28 30 33 36 39 42 46 49 52 58 61 52 44 38 35 34
39 32 28 24 23 17 16 16 18 22 23 23 23 24 22 18 12 9 15 16 16 17 18 17 16 17 16 16 17 15 15 18 20 20 20 21 24 26 29 32 36 39 43 46 47 49 55 58 48 41 36 33 31 28
21 19 20 18 16 18 25 28 24 23 24 23 23 21 19 15 14 17 16 16 18 19 19 17 17 16 17 15 13 14 17 16 16 16 19 21 24 28 31 35 38 40 42 44 47 52 56 48 39 34 32 30 28 26
22 23 27 28 29 26 24 23 22 20 20 20 19 19 17 19 20 20 20 20 19 18 17 17 16 17 14 12 13 14 14 14 14 16 19 22 25 29 32 35 38 40 42 45 48 53 48 40 35 32 30 28 26 25
29 29 26 22 21 21 21 20 19 18 19 19 19 19 18 18 19 20 19 18 18 18 16 17 17 15 12 13 13 14 15 15 17 19 22 25 28 31 35 38 40 41 43 45 49 51 43 37 34 31 28 26 25 24
22 22 22 21 20 21 21 21 21 23 23 21 20 19 18 18 17 17 18 19 18 17 18 18 16 14 14 15 15 17 17 18 20 22 25 28 31 34 38 41 42 42 43 45 49 48 41 35 31 28 26 25 23 23
21 20 21 22 21 22 23 23 23 23 23 22 22 21 21 22 22 21 22 20 20 21 20 19 16 16 16 16 17 18 19 20 22 24 27 30 33 36 39 42 43 44 44 45 47 45 38 33 30 27 25 24 24 24
27 27 26 26 26 25 26 27 29 28 28 27 26 26 26 26 25 23 25 23 22 21 19 17 16 16 16 17 18 20 21 23 25 28 29 31 34 37 39 42 44 44 44 45 46 43 37 32 29 27 26 26 26 26

GFSWCAN_500_spd_138.txt.gz
Wind_Speed
34 33 36 48 49 37 35 34 34 25 27 29 29 27 26 26 29 32 32 36 39 39 31 28 25 22 21 20 18 16 16 15 15 15 14 15 15 14 11 9 9 8 10 12 12 11 12 14 18 17 12 11 10 10
39 37 37 39 44 41 37 37 35 28 23 24 24 25 27 29 31 34 42 44 42 41 36 29 23 23 20 17 16 15 14 14 12 12 14 15 15 14 12 12 11 10 10 10 11 11 12 15 17 12 9 9 7 7
39 38 37 38 40 41 38 35 31 27 25 24 24 25 26 27 31 39 39 42 41 32 28 25 22 20 17 17 16 14 12 11 11 12 14 16 15 14 15 15 14 12 10 10 11 9 11 11 12 9 9 7 7 8
36 36 36 38 40 40 38 37 34 29 27 25 25 26 25 32 38 43 45 36 30 27 25 23 21 20 19 17 15 12 11 10 10 13 16 19 16 17 18 18 17 14 10 10 11 10 10 8 10 9 8 8 9 11
34 36 38 37 39 39 38 35 33 30 28 27 26 30 35 41 47 42 35 34 30 29 26 23 21 20 18 16 14 13 12 11 11 13 18 21 20 20 23 22 21 18 12 9 11 9 9 10 8 9 11 10 12 14
32 34 36 36 38 37 35 33 32 30 28 27 29 35 43 47 42 40 36 34 31 28 23 23 21 19 18 17 14 12 12 11 14 16 20 21 21 21 23 24 26 23 17 12 10 13 10 11 10 12 12 12 12 15
33 33 34 35 34 34 34 32 31 29 30 34 37 40 40 39 39 34 28 28 29 27 23 22 20 18 16 14 13 12 11 12 13 17 18 19 18 19 16 20 27 24 20 17 14 13 11 11 12 12 13 14 16 18
31 31 33 33 32 32 34 33 31 32 35 40 40 39 39 40 36 33 31 30 27 25 23 20 18 17 16 14 14 12 11 12 14 16 18 17 16 14 9 14 20 23 21 19 15 13 12 13 13 13 13 16 17 19
32 33 32 33 34 33 35 36 36 35 36 38 43 42 40 40 34 32 31 29 27 24 21 20 18 16 15 14 14 13 13 14 15 17 17 16 14 11 9 10 16 21 20 18 15 15 13 15 15 15 16 17 18 19
31 29 29 33 34 35 36 37 37 37 36 39 47 44 43 41 36 34 32 30 27 24 23 22 19 16 15 15 14 13 14 15 16 17 17 15 14 13 12 14 15 17 18 16 15 15 16 16 16 15 16 16 16 16
29 25 26 31 35 36 36 36 36 37 39 42 46 46 41 40 37 32 32 31 29 26 25 22 21 18 16 15 15 14 15 17 17 19 18 14 16 14 12 13 13 14 16 16 17 17 18 18 18 18 18 18 20 20
29 25 25 29 32 35 36 36 36 37 37 42 46 47 41 41 39 36 35 32 31 28 25 22 19 19 17 16 16 16 17 18 20 22 20 14 20 17 16 15 13 14 16 17 18 20 20 21 23 23 22 22 23 25
30 25 27 30 32 35 37 37 37 37 40 39 44 46 42 42 42 41 39 34 32 29 25 22 21 18 18 18 17 18 19 20 22 25 23 20 21 22 20 19 19 19 18 18 21 23 25 26 27 27 28 27 28 27
32 27 26 28 31 34 37 38 36 37 39 38 43 43 43 45 43 41 38 33 29 26 26 24 23 22 21 20 20 20 22 23 25 27 23 21 22 23 24 23 23 21 20 21 23 24 25 28 30 31 32 31 31 30
35 30 25 26 28 30 30 32 35 37 39 40 40 42 43 43 39 39 38 35 30 28 29 28 26 23 22 21 21 23 24 24 27 25 22 22 22 18 16 17 18 18 19 20 22 24 26 27 29 30 31 32 32 32
36 31 28 27 27 27 25 25 27 31 32 32 33 33 37 36 34 35 35 35 36 35 32 29 26 25 24 23 22 24 24 26 25 22 20 19 12 10 10 11 14 17 19 22 24 25 26 27 28 29 31 32 33 33
35 31 30 31 29 26 25 23 23 24 25 27 26 28 29 31 30 30 31 32 32 31 29 28 26 25 24 22 23 24 25 26 23 18 16 17 16 19 20 21 21 22 23 25 26 28 28 28 29 30 31 32 33 35
41 37 30 32 31 27 24 22 20 19 21 21 22 23 25 27 29 29 29 29 29 30 28 27 26 23 22 23 25 26 27 25 19 18 19 21 22 22 24 26 27 28 30 31 32 32 32 32 33 34 35 36 38 40
44 38 29 33 33 31 28 24 21 18 16 18 20 20 21 23 25 27 28 28 28 28 26 25 24 21 25 27 28 28 26 20 18 19 21 24 27 28 28 29 29 31 33 34 34 34 36 37 38 40 41 43 45 46
42 40 39 37 36 34 31 27 25 22 19 16 17 17 19 20 21 22 24 24 24 24 22 21 23 26 29 29 27 21 17 16 17 20 24 26 27 27 27 28 30 30 30 30 30 33 36 38 40 43 45 47 47 47
44 41 42 44 40 36 33 29 27 23 22 19 16 15 16 18 20 21 21 22 21 21 22 23 26 29 30 25 19 14 14 17 21 23 23 22 21 21 22 23 23 23 24 26 29 33 37 41 43 43 42 43 44 45
47 45 40 42 42 38 35 31 28 24 23 21 20 19 18 18 20 21 22 21 21 23 26 28 29 25 19 13 13 13 17 19 19 20 20 21 21 20 20 21 22 23 26 29 32 36 38 39 40 42 45 48 51 54
46 48 45 42 41 40 37 32 29 27 26 25 23 23 24 23 24 25 24 24 25 28 28 22 19 14 13 12 13 15 17 18 18 19 20 19 19 21 21 22 25 28 30 32 34 37 40 43 46 49 51 53 54 59
51 47 47 43 41 36 37 34 29 29 27 25 24 24 25 27 28 28 26 22 24 24 18 15 14 13 12 13 15 15 16 17 18 18 19 20 20 21 25 27 27 28 30 33 37 40 44 47 49 50 52 57 62 56
52 44 47 48 40 35 31 29 28 29 29 27 24 24 25 27 27 26 21 21 22 19 17 16 16 15 15 15 14 14 16 16 17 17 17 19 22 23 23 24 26 29 32 36 40 43 46 47 49 50 57 55 47 41
47 47 48 42 40 42 41 38 38 34 31 26 24 22 22 23 22 18 17 20 22 19 18 18 16 15 13 12 13 15 15 14 14 16 19 20 20 20 22 24 26 29 33 37 40 43 45 46 48 54 51 43 38 35
42 45 44 44 40 40 35 30 28 27 28 27 23 22 22 20 18 17 20 21 19 18 16 15 13 11 11 12 13 13 13 13 15 17 17 17 17 18 20 24 27 30 34 38 41 43 44 46 50 52 45 39 35 33
31 30 27 27 27 28 25 24 23 26 28 25 21 20 20 18 16 17 15 14 13 12 12 12 11 10 12 12 12 12 12 13 14 14 14 15 17 20 23 26 29 33 37 40 43 45 45 46 50 48 41 36 32 29
30 28 22 21 25 26 26 26 28 26 21 21 19 19 16 14 14 14 14 15 14 13 14 13 12 13 13 13 13 12 12 13 13 14 16 18 19 21 24 28 32 35 39 42 45 47 46 47 49 45 39 34 31 28
26 20 17 17 21 26 25 24 22 22 21 20 19 18 16 17 16 16 15 15 16 15 13 13 14 14 13 14 14 13 13 14 15 17 18 19 21 23 27 31 35 38 41 43 46 47 47 47 48 44 37 33 30 28
21 20 21 22 23 22 22 22 21 21 20 20 19 17 17 17 17 15 15 15 14 14 15 16 15 15 15 16 15 15 16 17 18 19 20 23 26 29 32 34 38 40 42 43 46 47 46 46 47 43 37 33 30 29
21 20 19 19 19 21 21 22 22 21 20 20 18 18 19 19 17 15 16 17 17 17 17 17 17 17 17 18 17 17 18 19 19 21 23 26 30 33 34 36 38 40 41 43 45 47 46 46 46 43 39 34 32 30
22 23 22 22 22 22 22 23 24 24 23 23 22 21 20 18 17 15 18 24 25 20 18 19 18 19 20 18 18 18 19 19 21 22 25 26 29 32 34 36 38 39 41 42 44 46 46 45 45 44 40 36 34 33

GFSWCAN_500_spd_141.txt.gz
Wind_Speed
22 36 30 31 31 34 35 37 44 43 36 38 36 34 34 36 28 31 35 36 33 31 31 27 24 22 23 24 21 16 15 14 14 13 13 13 13 14 14 13 12 12 10 12 14 15 15 14 15 16 17 13 14 14
24 29 36 39 37 35 39 41 44 40 38 40 37 30 33 30 33 34 29 28 31 33 29 31 32 34 29 22 18 15 14 13 13 12 11 11 12 14 13 12 14 14 12 12 12 14 15 16 19 20 15 13 12 12
30 29 39 48 39 41 39 37 37 35 32 32 35 35 34 30 29 28 28 29 32 38 40 37 31 26 20 18 15 13 12 11 10 10 10 11 12 15 13 12 14 15 14 13 12 14 15 15 16 14 14 13 10 13
33 35 34 37 46 40 36 33 30 28 26 28 30 30 31 30 31 33 34 34 41 39 34 33 27 24 21 17 15 13 11 9 8 9 9 11 15 16 16 13 16 18 18 16 13 11 15 15 15 14 14 12 14 15
32 34 36 37 36 40 36 32 30 29 28 25 24 26 28 30 33 35 40 43 39 34 30 27 26 21 20 16 13 11 9 8 9 9 10 12 15 18 19 17 18 23 23 19 15 11 13 14 14 15 15 13 16 16
34 35 37 39 39 38 36 32 31 28 25 23 23 26 29 30 35 40 42 44 37 32 32 26 22 21 17 14 13 10 9 8 8 9 10 13 16 17 18 18 21 26 27 23 19 16 14 14 13 13 14 15 15 16
33 35 35 37 39 38 36 35 32 29 27 26 29 32 35 41 41 41 38 35 35 27 25 23 21 18 15 13 11 10 9 8 8 10 12 14 17 19 19 19 16 20 26 25 22 21 17 16 13 13 14 16 17 18
30 33 35 36 37 36 35 34 33 32 30 31 31 36 40 43 44 40 37 32 26 24 22 22 20 17 14 12 10 10 9 8 9 10 13 15 18 19 18 17 11 13 19 23 23 22 18 17 17 15 15 17 18 19
29 31 32 34 36 35 36 37 35 34 34 36 36 42 46 44 42 36 31 28 26 23 20 17 16 15 14 12 11 9 9 9 10 11 14 17 19 19 19 14 10 10 15 20 22 22 19 17 18 18 17 17 18 19
27 29 29 31 33 35 35 34 33 35 36 38 39 42 42 40 38 33 31 28 26 24 22 19 16 14 13 12 11 10 10 10 11 13 14 18 21 21 19 16 13 13 15 17 19 20 19 18 20 21 21 21 20 22
29 28 30 30 31 29 30 33 32 34 37 40 38 38 38 39 36 32 30 30 28 26 23 21 18 15 15 13 12 12 12 12 13 15 15 19 23 22 20 18 14 13 14 15 18 18 19 20 21 23 24 26 26 26
29 28 30 32 32 36 35 34 35 36 39 37 35 36 37 38 35 33 32 30 27 25 24 21 19 16 16 14 12 12 13 14 15 17 18 21 24 23 20 19 18 17 17 16 16 17 18 20 22 25 27 29 30 31
24 23 26 29 30 31 31 32 32 34 34 35 38 37 35 38 38 36 34 29 27 24 22 20 18 16 14 13 13 13 14 16 18 19 21 24 25 23 20 20 21 21 23 21 18 18 19 21 23 26 28 30 32 34
24 21 22 27 29 29 30 29 29 32 35 35 37 38 38 36 35 33 30 28 25 23 23 22 20 16 16 16 16 16 17 18 20 21 24 27 26 23 22 22 22 21 23 23 20 20 21 23 25 27 29 30 32 34
24 21 23 26 28 29 29 28 27 31 34 34 33 35 33 31 29 29 31 31 29 24 22 21 20 21 19 16 17 18 19 20 21 23 25 27 22 20 16 12 10 7 12 17 20 21 23 24 27 29 29 31 31 32
24 21 23 25 28 30 30 29 28 30 32 32 32 32 29 27 27 27 29 30 30 27 25 23 21 22 20 19 19 20 20 21 23 25 27 25 17 15 14 13 13 13 17 18 21 24 26 28 31 32 32 32 33 33
24 20 21 26 27 27 27 28 27 28 31 34 34 31 29 28 28 29 29 30 31 32 28 27 26 23 23 21 21 20 21 23 24 26 28 21 16 17 18 18 21 23 25 25 26 28 31 33 35 37 36 36 38 38
25 24 21 23 27 28 28 28 29 29 29 28 29 28 28 28 30 29 30 29 29 30 28 27 24 21 21 21 22 21 22 23 26 28 25 19 18 20 23 25 26 25 26 28 29 31 34 35 37 37 37 38 40 42
30 29 26 25 25 26 24 25 25 26 26 26 25 24 24 26 27 27 26 26 25 24 23 22 21 21 22 22 22 21 22 25 27 23 17 16 19 23 26 27 27 26 27 29 31 31 30 29 29 32 36 40 43 45
33 30 28 26 23 23 23 22 22 21 22 21 21 21 21 22 22 24 25 24 23 22 21 22 23 23 22 20 20 21 24 26 22 15 14 17 22 22 22 22 22 21 22 22 23 24 25 28 32 36 39 42 44 46
36 32 27 26 25 22 22 20 19 18 16 16 16 16 16 18 19 21 22 22 21 21 21 22 21 19 18 20 22 24 24 19 13 12 17 18 18 20 21 20 20 20 21 22 24 27 29 31 34 38 43 47 51 53
35 31 27 25 24 24 22 21 18 17 16 14 12 11 12 14 15 17 17 17 18 19 19 18 18 19 22 25 25 24 17 11 12 15 16 17 19 19 18 19 19 20 24 25 25 27 31 35 39 43 47 50 51 52
39 36 34 30 27 27 26 24 22 21 19 17 16 14 13 13 15 16 16 16 18 20 20 20 21 24 25 24 21 14 10 11 13 14 16 17 16 18 18 18 21 22 23 24 27 30 34 37 41 45 48 50 51 53
41 39 39 38 35 32 28 27 25 24 21 20 18 17 18 19 20 21 20 19 21 24 24 23 24 22 18 15 12 10 11 13 14 16 15 15 16 16 19 20 20 21 22 25 28 31 35 39 43 46 49 49 51 54
43 42 41 38 37 34 32 30 28 25 24 22 22 22 22 24 25 25 24 25 27 27 27 23 20 18 17 14 12 12 13 15 15 14 14 14 16 18 17 17 18 20 22 25 29 33 37 42 46 48 49 49 51 49
48 46 42 38 34 33 31 28 27 26 24 23 20 21 23 25 25 25 21 20 23 26 20 17 17 16 15 14 13 15 16 15 15 14 13 15 15 15 15 16 18 20 23 27 32 36 40 44 48 49 49 49 50 45
47 46 42 39 35 30 29 28 25 23 22 22 27 24 21 20 19 17 16 19 20 17 15 15 15 16 15 16 17 16 15 15 14 13 13 13 12 13 15 17 19 23 27 31 35 39 42 45 48 49 49 48 48 43
44 43 41 38 34 32 31 27 25 27 29 31 27 24 21 19 16 14 17 18 16 15 15 16 17 17 17 16 14 14 14 13 13 12 12 12 13 15 17 19 22 27 32 36 39 41 43 45 48 49 49 48 47 42
44 40 38 37 36 36 36 38 40 39 36 33 31 27 22 16 15 17 17 16 15 16 15 15 14 15 15 13 13 13 12 13 12 11 11 13 15 17 20 23 27 31 35 37 40 41 42 44 47 49 49 47 47 43
40 40 40 39 34 31 29 28 28 30 34 33 28 20 16 17 16 16 15 14 15 15 15 15 14 14 13 13 13 14 14 14 13 13 14 16 18 20 23 27 30 31 34 37 40 41 42 44 46 48 48 47 47 45
19 21 21 20 18 19 21 26 30 30 26 20 19 19 18 16 14 13 13 14 14 15 15 15 13 13 14 14 14 14 16 15 14 15 17 19 21 23 25 26 28 32 35 38 41 42 43 44 46 48 49 48 47 46
24 25 26 24 23 24 23 20 19 18 18 17 17 16 16 15 14 13 12 13 14 15 14 13 13 13 14 14 15 17 17 16 17 18 20 21 22 23 24 26 29 33 37 40 42 43 44 44 46 48 48 48 48 47
15 16 15 16 16 15 17 17 18 19 19 19 18 17 15 15 13 11 13 17 19 18 15 13 13 14 16 16 18 20 20 19 18 20 21 22 23 24 25 28 31 35 38 42 43 44 44 44 46 48 49 49 49 49